[{"header": {"dx": 0.06612293990616946, "dy": 0.0552356325346848, "nx": 98, "ny": 59, "la1": 35.046912555036876, "la2": 31.78801023549047, "lo1": -121.43107172385933, "lo2": -114.95102361305473, "refTime": "2026041812", "parameterCategory": 1, "parameterNumber": 2}, "data": [9.43, 9.79, 9.79, 9.32, 8.84, 8.11, 7.98, 7.0, 6.29, 5.99, 5.63, 0.0, 0.0, -12.96, -8.53, -9.67, -9.97, -10.0, -10.79, -12.35, -12.96, -12.96, -11.46, -10.96, -10.84, -11.28, -8.53, -5.6, -5.4, -8.53, 12.52, 12.96, 12.52, 11.18, 10.28, 9.83, 9.39, 9.39, 8.4, -0.0, 4.4, 10.6, 11.62, 11.2, 13.99, 15.01, 18.6, 19.84, 14.22, 11.88, 6.4, 8.85, 12.16, 12.52, 12.52, 11.06, 12.22, 13.02, 14.38, 14.84, 15.65, 0.0, -10.75, -0.0, 13.59, 13.02, 14.39, 14.94, 15.47, 15.71, 15.78, 15.55, 15.65, 15.65, 15.65, 15.65, 14.55, 14.3, 14.55, 10.43, 0.0, 13.41, 12.96, 12.52, 12.07, 11.62, 12.07, 0.0, 5.0, 5.0, 4.1, 3.93, 1.83, 0.0, 1.83, 2.02, 3.68, 3.56, 9.43, 9.79, 9.79, 8.96, 9.09, 8.61, 8.28, 7.0, 6.8, 6.6, 4.87, 3.58, 0.0, 0.0, 12.96, 0.0, -8.93, -10.8, -11.21, -10.68, -12.89, -12.79, -12.96, -12.58, -9.6, -9.3, -8.22, -8.53, -11.45, -12.52, -14.3, -13.86, -12.52, -0.0, 5.69, 8.48, 7.81, 8.94, 9.39, 9.75, 12.52, 12.72, 11.6, 11.44, 12.86, 15.71, 17.28, 14.22, 9.8, 6.6, 8.85, 10.75, 13.03, 11.87, 10.75, 11.06, 12.22, 12.65, 13.58, 14.65, 15.04, 15.2, 15.2, 10.75, 10.75, 13.02, 14.39, 14.94, 15.47, 15.61, 16.15, 15.61, 16.09, 15.2, 15.2, 14.75, 14.6, 14.3, 14.55, 10.43, 0.0, 13.41, 12.96, 12.52, 12.07, 11.62, 12.07, 0.0, 5.0, 5.0, 4.1, 3.93, 1.83, 0.0, 1.83, 2.02, 3.68, 3.56, 9.79, 9.79, 9.79, 9.55, 9.32, 8.84, 8.11, 7.57, 7.21, 7.06, 5.81, 3.56, 4.38, 0.0, 8.22, 11.62, 8.22, -8.22, -10.35, -12.04, -10.68, -11.87, -11.87, -13.41, -13.86, -8.93, -7.59, -7.59, -10.84, -11.4, -14.47, -15.2, -14.3, -7.9, -0.0, 8.4, 8.67, 8.94, 9.83, 11.4, 11.62, 12.0, 13.29, 13.9, 14.44, 13.86, 11.66, 10.73, 8.18, 9.12, 10.75, 13.03, 13.03, 12.16, 10.43, 10.75, 11.87, 13.58, 13.99, 14.65, 14.65, 14.42, 14.75, 10.75, 10.75, 11.06, 13.42, 13.42, 13.99, 14.79, 14.71, 15.27, 15.49, 15.2, 13.19, 14.31, 15.2, 15.2, 14.16, 6.6, -10.12, 0.0, 0.0, 0.0, -8.22, 11.62, 11.18, 11.18, 7.9, 8.85, 10.18, 6.72, 3.9, 1.89, 0.0, 0.0, 1.83, 1.77, 9.79, 9.79, 9.79, 9.55, 9.92, 9.09, 8.61, 8.51, 7.76, 7.43, 5.92, 4.38, 3.47, 3.96, 5.4, 10.4, 11.03, 10.8, -8.22, -11.45, -10.75, -10.96, -10.6, -10.46, -11.95, -12.96, -9.2, -6.95, -8.8, -10.96, -10.35, -11.88, -14.53, -13.99, 12.52, 10.73, 10.28, 10.52, 11.87, 12.03, 12.45, 13.59, 13.91, 13.03, 12.16, 12.39, 13.67, 12.27, 11.52, 12.27, 13.19, 13.03, 12.65, 10.43, 10.43, 10.43, 12.65, 13.58, 13.99, 14.65, 14.75, 14.61, 12.65, 10.43, 10.43, 10.75, 12.22, 12.02, 13.24, 13.46, 14.13, 14.53, 15.27, 14.75, 11.9, 8.31, 12.65, 14.56, 15.05, 0.0, -9.48, -6.0, -5.8, -8.22, -7.9, -8.22, 12.07, 10.4, 7.9, 11.06, 12.64, 9.0, 6.16, 2.09, 0.0, 0.0, 0.0, 1.77, 9.79, 9.79, 9.79, 9.55, 9.92, 9.32, 9.47, 9.0, 8.05, 7.21, 6.6, 5.15, 2.81, 3.14, 3.82, 6.7, 8.22, 10.04, 0.0, -11.21, -12.79, -12.35, -11.62, -11.46, -10.65, -12.07, -12.52, -11.45, -10.0, -10.28, -8.58, -7.9, -7.26, -6.44, 0.0, 6.4, 10.75, 11.09, 12.11, 11.58, 11.36, 10.75, 11.16, 13.67, 13.86, 13.75, 13.88, 13.39, 13.56, 13.97, 13.19, 12.79, 12.27, 10.43, 10.43, 12.27, 13.2, 14.38, 13.99, 14.42, 14.4, 13.57, 11.44, 7.59, 8.18, 12.71, 14.13, 12.92, 12.96, 14.22, 16.37, 16.28, 16.69, 15.14, 15.34, 7.78, 7.13, 12.42, 13.15, 0.0, -10.37, -7.19, -6.7, -10.0, -8.94, -3.68, 6.7, 8.22, 11.88, 12.64, 12.33, 8.68, 8.18, 4.24, 0.0, 0.0, 0.0, 1.77, 9.79, 9.79, 9.79, 9.55, 9.92, 9.92, 9.09, 8.61, 8.53, 7.76, 7.21, 5.92, 5.31, 3.14, 3.96, 5.4, 5.4, 8.53, 5.4, -7.24, -11.18, -11.78, -13.23, -13.41, -12.52, -11.84, -11.21, -10.04, -9.17, -8.53, 0.0, -5.7, -5.29, -3.39, 0.0, 3.36, 5.28, 9.02, 10.75, 8.78, 6.21, 10.12, 12.87, 14.3, 14.3, 14.75, 14.66, 13.88, 13.75, 13.57, 13.15, 12.87, 11.88, 11.17, 12.65, 13.56, 13.56, 13.19, 14.23, 14.13, 13.53, 12.45, 10.43, 9.49, 11.38, 13.05, 13.39, 12.92, 13.26, 16.74, 20.02, 18.38, 16.02, 16.79, 17.39, 16.54, 9.48, 9.17, 12.71, 9.17, -8.53, -2.82, -4.32, -6.97, -5.98, 0.0, 3.36, 9.0, 11.53, 11.77, 9.35, 9.09, 9.09, 4.81, 0.0, 0.0, 2.13, 2.06, 9.79, 9.79, 9.79, 9.55, 9.55, 9.92, 9.09, 9.47, 8.77, 8.05, 7.54, 6.2, 5.31, 5.8, 6.0, 3.68, 6.7, 7.51, 7.82, 2.37, -10.8, -13.28, -13.32, -11.92, -11.62, -9.3, -8.22, -7.24, -5.6, -4.8, -7.9, 0.0, 0.0, 0.0, 0.0, 0.0, 1.55, 8.38, 9.08, 6.17, 3.96, 3.14, 6.4, 11.87, 13.58, 15.05, 15.93, 13.97, 12.98, 13.72, 14.11, 12.87, 12.27, 12.65, 13.28, 13.15, 13.57, 13.28, 13.75, 13.53, 13.01, 11.99, 12.16, 12.87, 9.92, 11.7, 14.13, 13.8, 14.53, 17.64, 20.4, 19.47, 16.86, 16.46, 16.9, 16.99, 15.2, 13.41, 12.45, 13.23, 0.0, 0.0, 0.0, -2.02, 0.0, 1.41, 4.66, 6.87, 9.34, 8.0, 6.72, 7.21, 4.3, 0.0, 0.0, 3.14, 4.65, 4.1, 9.55, 9.55, 9.55, 9.55, 9.55, 9.92, 9.67, 9.23, 8.99, 8.29, 7.54, 5.81, 7.36, 8.05, 9.8, 6.7, 6.94, 9.48, 9.17, 10.01, 12.52, 6.94, 12.96, -12.39, -9.8, -6.21, -5.4, -5.6, -7.26, -7.9, -7.9, -3.68, 0.0, 2.6, 1.58, 1.39, 0.0, 5.0, 10.01, 11.03, 11.18, 3.82, 4.98, 7.36, 10.43, 16.09, 14.53, 15.47, 14.4, 14.16, 12.27, 12.45, 11.88, 12.39, 12.39, 11.88, 12.39, 13.15, 12.89, 12.46, 12.14, 12.72, 14.75, 11.06, 5.09, 12.01, 15.19, 15.43, 14.75, 15.65, 17.88, 18.33, 15.97, 15.34, 14.9, 14.66, 14.19, 11.99, 11.92, 14.23, 15.57, 5.81, 1.47, 0.0, 1.34, 4.12, 4.62, 5.18, 3.98, 5.81, 5.98, 3.49, -2.2, -6.2, 0.0, 5.6, 6.21, 4.1, 8.96, 9.55, 9.55, 9.55, 9.55, 9.92, 9.67, 8.86, 8.99, 8.53, 7.82, 5.86, 7.0, 5.28, 6.9, 5.8, 6.9, 6.9, 9.17, 11.2, 12.52, 11.2, 11.6, 13.15, -3.25, -4.65, -3.65, -6.7, -9.27, -7.59, -2.28, 0.0, 0.0, 2.37, 1.58, 1.45, 0.0, 2.1, 6.45, 11.18, 12.52, 0.0, 5.6, 0.0, 14.3, 9.8, 16.09, 16.99, 15.93, 14.42, 12.65, 10.12, 10.47, 11.53, 11.53, 11.53, 12.03, 11.92, 11.72, 12.14, 12.42, 14.99, 15.2, 7.0, 5.09, 12.01, 16.76, 15.87, 14.75, 13.99, 15.78, 16.41, 16.15, 15.09, 14.47, 14.16, 13.86, 12.96, 13.86, 15.2, 16.54, 10.43, 3.47, 2.89, 2.88, 4.47, 4.59, 4.54, 2.65, 2.5, 0.0, -4.1, -7.19, -4.98, 2.63, 8.85, 7.54, 6.21, 8.74, 9.55, 9.55, 9.55, 9.55, 9.92, 9.67, 9.42, 8.74, 8.74, 8.29, 7.45, 6.88, 5.11, 4.52, 4.24, 4.38, 3.98, 4.38, 2.54, 3.04, 5.6, 12.96, 13.41, -9.48, -10.04, -8.18, -9.3, -8.38, -3.82, 0.0, 0.0, 0.0, 0.0, 0.0, 0.0, 2.6, 0.0, -8.22, 12.52, 0.0, 0.0, -12.07, -11.62, -11.62, 12.96, 9.48, 13.57, 15.65, 12.52, 10.43, 10.43, 10.12, 11.53, 11.53, 12.42, 12.39, 12.3, 12.22, 12.44, 14.75, 16.54, 16.54, 5.09, 5.09, 12.33, 16.96, 15.47, 13.86, 13.57, 13.19, 15.18, 15.53, 15.83, 15.27, 13.75, 12.72, 11.2, 12.3, 14.51, 16.94, 16.54, 8.51, 4.95, 5.15, 6.9, 8.31, 10.12, 10.12, 0.0, -7.78, -7.82, -5.6, -4.1, 2.13, 7.82, 8.1, 6.44, 8.74, 8.74, 9.55, 9.55, 9.55, 9.55, 9.67, 9.17, 9.17, 8.74, 8.5, 8.06, 8.43, 7.74, 7.0, 5.81, 5.48, 3.47, 1.83, 0.0, -1.94, -8.68, -13.19, -12.52, -12.96, -10.73, -10.28, -9.83, -4.6, -4.65, -2.37, -3.11, 0.0, 0.0, 0.0, 0.0, 0.0, -8.22, -10.4, -8.85, 0.0, 0.0, 12.52, 12.07, 11.62, 11.62, 12.07, 12.52, 9.17, 3.25, 6.6, 11.38, 13.8, 13.8, 14.39, 15.2, 15.69, 13.79, 11.18, 13.41, 17.43, 17.88, 11.7, 3.9, 3.16, 12.64, 15.99, 16.44, 14.9, 12.96, 12.87, 13.48, 15.41, 15.27, 14.84, 13.09, 10.68, 9.42, 11.64, 13.29, 14.65, 17.2, 15.99, 10.19, 11.38, 14.31, 14.9, 15.2, 14.3, 13.41, -3.96, -4.65, -3.96, -2.06, 2.2, 8.94, 8.66, 6.0, 8.74, 8.74, 9.55, 8.96, 9.55, 9.55, 9.67, 9.17, 9.17, 8.99, 8.74, 8.5, 8.86, 9.25, 9.73, 9.34, 8.1, 6.31, 4.24, 0.0, -5.02, -14.47, -14.3, -15.65, -13.41, -12.52, -11.45, -7.89, -10.73, -9.96, -10.0, -10.73, -9.6, -9.2, -10.28, -8.58, -8.58, -11.28, -11.03, -10.8, -12.52, 12.07, -0.0, -0.0, -4.8, -3.25, -8.53, 12.52, 12.96, 9.8, 14.3, 16.54, 18.78, 20.12, 18.85, 19.03, 19.99, 18.78, 12.01, 13.53, 17.88, 15.25, 3.42, -0.0, 3.9, 13.59, 18.19, 19.33, 19.34, 16.99, 14.18, 12.39, 13.81, 14.42, 12.46, 11.35, 10.68, 11.52, 11.77, 12.22, 12.87, 14.39, 16.48, 17.53, 18.21, 18.85, 17.2, 14.99, 14.75, 13.86, 10.41, 0.0, -1.91, 0.0, 3.96, 7.19, 8.18, 4.52, 8.74, 8.74, 8.74, 8.96, 8.96, 9.55, 9.67, 9.42, 9.17, 8.93, 8.74, 8.5, 9.39, 9.66, 10.76, 11.7, 11.63, 10.43, 9.21, 8.51, 6.4, 0.0, -15.2, -14.75, -14.3, -13.86, -13.36, -12.79, -12.03, -9.81, -11.06, -11.18, -11.02, -10.6, -11.02, -10.73, -10.58, -10.96, -11.18, -11.62, -10.4, -8.22, -3.53, -3.11, -4.6, -4.8, -8.22, 0.0, 0.0, 4.24, 2.45, 2.63, 5.31, 8.43, 10.19, 12.96, 17.99, 22.8, 15.97, 11.71, 11.38, 4.01, -0.0, -0.0, -0.0, 17.99, 17.88, 20.83, 21.99, 24.55, 22.35, 19.51, 13.57, 11.03, 9.46, 11.03, 13.99, 13.97, 12.87, 12.45, 11.38, 12.92, 13.65, 14.03, 16.66, 18.52, 18.91, 16.44, 15.27, 13.57, 13.15, 8.22, 5.0, 5.2, 6.44, 8.59, 8.1, 2.72, 8.74, 8.74, 8.96, 8.96, 8.96, 8.96, 9.67, 9.42, 9.42, 9.17, 9.28, 9.02, 9.02, 9.66, 10.33, 11.83, 12.85, 12.57, 12.46, 12.11, 12.82, 13.29, 10.75, 0.0, -14.84, -15.2, -15.2, -14.75, -13.86, -12.92, -10.68, -10.73, -11.18, -10.28, -10.28, -10.73, -10.08, -10.28, -10.28, -10.41, -8.93, -8.55, -4.8, -4.6, -0.0, -0.0, 9.39, 0.0, 3.68, 0.0, 0.0, 1.98, 3.32, 3.32, 3.96, 3.04, 3.79, 17.19, 20.82, 13.86, -9.8, -7.0, -0.0, 16.99, 0.0, 0.0, 17.43, 18.78, 21.46, 21.63, 22.48, 22.35, 16.39, 9.55, 10.88, 13.48, 14.79, 15.14, 13.82, 14.13, 12.01, 10.33, 11.77, 12.0, 13.58, 14.36, 15.53, 15.72, 14.95, 15.69, 13.75, 9.97, 9.3, 8.85, 9.48, 9.48, 9.17, 5.8, 8.74, 8.74, 8.96, 8.96, 8.96, 9.56, 9.32, 9.09, 9.42, 9.17, 8.93, 9.02, 9.28, 9.66, 10.43, 11.42, 11.83, 12.33, 12.85, 13.46, 13.91, 13.71, 13.2, 11.88, 3.07, -11.06, -15.05, -14.75, -14.3, -13.86, -12.52, -10.28, -11.18, -10.28, -10.28, -10.28, -10.18, -9.83, -11.18, -8.8, -7.27, -7.59, -6.95, -0.0, -0.0, -0.0, -0.0, 10.28, 10.73, 3.53, 2.28, 4.15, 4.8, 6.64, 9.83, 4.8, 2.82, 7.69, 16.39, -0.0, -11.6, -12.96, 13.86, 0.0, 0.0, 0.0, 0.0, 5.37, 7.2, 14.22, 6.5, -0.0, 20.56, 12.14, 11.5, 14.36, 15.14, 14.55, 14.13, 15.19, 16.54, 14.13, 13.02, 11.99, 10.79, 9.89, 11.68, 12.57, 12.87, 15.36, 16.12, 12.33, 9.42, 8.85, 11.5, 11.12, 10.37, 10.37, 8.74, 8.74, 8.96, 8.96, 8.96, 9.56, 9.32, 9.32, 8.86, 9.17, 8.93, 9.28, 9.28, 10.43, 10.71, 11.13, 11.86, 12.33, 13.14, 13.31, 14.19, 14.13, 13.91, 13.9, 13.02, 13.02, 10.75, 0.0, -15.2, -14.75, -14.3, -12.96, -10.28, -10.73, -10.28, -9.39, -9.97, -8.55, -8.93, -7.27, -6.64, -4.2, -0.0, -0.0, -0.0, -0.0, -0.0, -0.0, 7.27, 10.28, 7.9, 10.4, 10.4, 7.59, 4.2, 9.83, 7.27, 8.22, 14.75, 11.06, -0.0, 11.62, 11.62, 12.07, 0.0, 0.0, 0.0, 0.0, 0.0, -0.0, -0.0, -0.0, 8.4, 18.78, 14.75, 15.72, 16.48, 16.1, 15.25, 18.33, 15.25, 17.78, 16.99, 14.75, 11.95, 10.84, 9.48, 10.37, 11.6, 12.39, 14.38, 9.17, 7.78, 11.5, 12.14, 10.8, 8.85, 8.85, 8.74, 8.74, 8.96, 8.96, 9.32, 9.56, 9.56, 9.32, 9.09, 9.42, 8.93, 8.93, 9.54, 10.05, 10.71, 11.13, 11.13, 12.33, 12.78, 13.24, 14.51, 14.13, 14.57, 14.79, 15.16, 15.38, 15.27, 15.41, 15.61, 14.94, 11.06, -14.75, -12.96, -12.07, -8.0, -7.51, -7.87, -8.58, -7.27, -6.95, -6.95, -4.0, -4.6, -0.0, -0.0, -0.0, -0.0, -0.0, 7.27, 7.27, 7.27, 7.59, 7.9, 7.59, 10.73, 10.28, 10.28, 9.6, 5.4, 5.8, 8.85, 7.9, 7.59, 7.59, 7.59, 9.2, 3.68, 0.0, 0.0, 17.43, 21.9, -18.33, 17.88, 21.01, 17.88, 15.62, 15.99, 17.59, 19.67, 13.28, 14.88, 17.1, 16.99, 15.2, 14.19, 11.4, 11.45, 12.3, 11.99, 12.03, 13.48, 10.47, 7.51, 10.12, 11.99, 10.04, 8.85, 8.85, 8.74, 8.74, 8.96, 8.96, 9.32, 9.56, 9.56, 9.32, 9.09, 9.42, 9.17, 8.93, 10.05, 10.05, 10.71, 10.83, 11.9, 12.33, 12.45, 13.01, 13.76, 14.81, 14.59, 14.79, 15.55, 15.82, 16.05, 15.27, 15.38, 15.12, 14.65, 14.11, 14.3, 11.62, -0.0, -7.27, -8.43, -9.2, -8.18, -8.18, -6.95, -6.95, -4.4, -0.0, -0.0, -0.0, -0.0, -0.0, 7.27, 7.27, 7.27, 4.6, 7.27, 7.27, 10.28, 10.28, 9.75, 7.59, 5.0, 7.9, 10.8, 11.62, 10.73, -0.0, -0.0, -0.0, 9.39, 3.25, 2.93, 0.0, -14.22, -13.91, -8.8, 0.0, 0.0, -7.6, -9.92, -8.4, 19.67, 18.78, 17.43, 17.64, 17.19, 12.85, 11.99, 10.01, 10.37, 12.96, 11.5, 11.64, 12.79, 11.12, 8.22, 7.73, 10.86, 10.79, 8.85, 8.85, 8.74, 8.74, 8.74, 9.09, 9.32, 9.32, 9.56, 9.32, 9.32, 9.09, 9.17, 9.17, 9.54, 10.32, 9.92, 11.89, 10.83, 11.25, 11.83, 13.1, 14.42, 15.03, 13.76, 14.85, 13.99, 14.79, 11.92, 13.29, 13.58, 12.17, 13.28, 13.39, 13.23, 12.07, 11.18, -5.95, -8.55, -10.05, -10.96, -10.18, -8.18, -7.27, -5.0, -0.0, -0.0, -0.0, -0.0, -0.0, 7.27, 7.27, 4.6, 4.6, 4.6, 4.6, 4.6, 9.2, 9.2, 10.0, 10.8, 11.62, 11.62, 11.62, 11.18, -0.0, -0.0, -6.64, 9.39, 6.17, 6.7, 10.12, 0.0, 0.0, 19.34, 23.85, 16.39, -7.4, -12.33, -8.51, 0.0, 4.23, 12.01, 13.24, 13.23, 12.7, 11.38, 10.47, 10.76, 11.38, 10.12, 8.73, 10.99, 11.64, 10.3, 7.28, 9.8, 10.99, 9.8, 9.8, 8.74, 8.74, 8.74, 9.09, 9.32, 9.32, 9.32, 9.32, 9.32, 9.09, 9.42, 9.17, 9.54, 10.32, 10.32, 10.83, 10.33, 9.67, 10.43, 11.7, 14.1, 13.88, 13.18, 12.33, 10.69, 11.69, 11.1, 9.97, 10.94, 10.37, 10.87, 11.2, 11.45, 11.21, 11.03, 10.73, -8.93, -9.2, -9.2, -8.23, -6.44, -4.8, -2.71, -2.71, -0.0, -0.0, -0.0, -0.0, -0.0, -0.0, -0.0, 4.6, 4.8, 5.0, 6.95, 6.95, 9.3, 10.18, 10.18, 11.62, 11.18, 10.73, 10.73, -0.0, -0.0, -7.27, 10.28, 10.6, 12.07, 13.01, 16.22, 19.55, 24.07, 26.37, 20.51, 13.59, 0.0, -9.2, 0.0, 4.67, 7.98, 10.76, 12.01, 11.7, 10.33, 11.06, 10.12, 10.79, 9.8, 7.82, 7.44, 9.8, 10.75, 7.34, 6.73, 9.12, 9.6, 9.6, 8.12, 8.74, 9.09, 9.09, 9.09, 9.09, 9.32, 9.32, 9.32, 9.32, 9.42, 9.54, 9.54, 10.32, 10.32, 10.71, 10.83, 9.77, 8.72, 10.61, 12.33, 11.77, 11.38, 10.98, 10.98, 11.38, 10.43, 9.13, 8.3, 8.53, 8.22, 8.22, 9.67, 9.67, 8.22, 11.18, -0.0, -4.8, -5.95, -5.0, -4.15, -2.19, -2.19, -0.0, -0.0, -0.0, -0.0, -0.0, -0.0, -0.0, -0.0, -0.0, -0.0, -0.0, 4.8, 7.27, 9.3, 7.9, 11.03, 11.18, 11.18, 11.18, 10.73, 11.18, -7.27, -7.59, 10.73, 12.07, 9.17, 8.66, 10.18, 15.72, 22.73, 25.03, 17.91, 12.33, 3.09, -5.42, -4.75, 0.0, 6.87, 10.3, 10.43, 10.47, 11.53, 13.41, -0.0, 13.41, 13.15, 10.35, 8.01, 8.23, 9.71, 7.11, 5.15, 6.6, 7.16, 7.16, 8.25, 8.47, 9.09, 9.09, 9.09, 9.09, 9.09, 9.32, 9.32, 9.47, 9.23, 9.54, 9.54, 10.32, 10.32, 10.32, 10.71, 10.15, 10.15, 10.89, 11.38, 10.75, 10.04, 10.75, 11.79, 12.56, 12.46, 12.16, 10.82, 9.17, 6.7, 6.45, 6.45, 6.45, 8.22, 10.0, 11.62, -0.0, -0.0, -0.0, -0.0, -0.0, -0.0, -0.0, -0.0, -0.0, -0.0, -0.0, 10.28, -0.0, -0.0, -0.0, -0.0, -0.0, -0.0, 5.0, 6.45, 6.94, 8.22, 10.73, -10.28, -10.73, -7.9, -7.9, -7.9, -7.9, -8.22, -0.0, -0.0, -0.0, 11.06, 16.09, 20.32, 23.42, 3.92, 5.99, 10.19, 3.09, -5.89, -4.56, 0.0, 5.23, 11.38, 12.16, 13.88, 11.99, 13.41, 10.12, 12.27, 11.21, 9.42, 8.97, 9.5, 8.31, 3.47, 4.52, 6.6, 6.6, 8.25, 8.25, 8.25, 9.09, 9.09, 9.09, 9.09, 9.09, 9.47, 9.47, 9.23, 9.54, 9.54, 9.54, 10.32, 10.32, 10.71, 10.43, 10.89, 11.62, 12.09, 12.22, 11.26, 10.54, 11.26, 12.4, 12.87, 13.18, 12.89, 11.9, 10.47, 10.37, 8.53, 10.4, 11.28, 11.62, 11.62, 11.03, 8.22, 6.45, 2.82, 2.28, -0.0, 2.28, 2.28, 2.71, -0.0, -0.0, 9.39, -0.0, -0.0, -0.0, -0.0, -0.0, -0.0, -0.0, -0.0, 4.1, -0.0, -0.0, -9.39, -10.28, -11.62, -8.22, -5.0, -5.0, -0.0, 11.18, 11.62, 0.0, 0.0, 17.88, -0.0, -0.0, 0.0, 2.83, 7.96, 10.75, 6.31, -3.16, -2.72, 0.0, 2.57, 5.81, 6.6, 7.69, 6.2, 7.36, 9.33, 12.64, 11.68, 9.62, 8.78, 8.94, 2.81, 3.93, 5.02, 5.02, 8.25, 8.25, 8.25, 8.25, 9.09, 9.09, 9.09, 9.47, 9.47, 9.47, 9.23, 9.54, 9.54, 9.54, 10.32, 10.32, 11.19, 10.89, 10.89, 12.01, 12.78, 12.92, 12.73, 12.5, 11.76, 12.13, 12.16, 13.02, 13.2, 13.03, 12.13, 12.03, 11.92, 12.04, 11.51, 11.18, 11.18, 10.38, 10.79, 9.3, 6.97, 4.32, 4.32, 2.28, 2.28, 2.71, -0.0, 7.9, -0.0, -0.0, -0.0, -0.0, -0.0, -0.0, -0.0, -0.0, -0.0, -0.0, -0.0, -0.0, 8.94, -6.64, -7.9, -11.62, -5.0, -5.4, -0.0, -0.0, 11.18, 0.0, 3.53, -20.56, -0.0, -0.0, 16.54, 3.25, 6.0, 10.12, 12.65, 10.75, 0.0, -4.23, -3.42, 0.0, 0.0, 2.05, 3.59, 5.96, 8.4, 9.92, 12.01, 8.59, 9.8, 11.53, 10.12, 7.36, 6.2, 6.2, 8.25, 8.25, 8.25, 8.25, 8.25, 8.86, 9.47, 9.47, 9.47, 9.47, 9.23, 9.54, 9.54, 9.54, 10.05, 10.71, 10.43, 10.89, 11.29, 11.7, 12.42, 13.26, 13.34, 13.1, 12.5, 12.13, 11.8, 11.8, 12.65, 12.45, 12.95, 12.79, 12.45, 12.3, 12.44, 11.62, 11.18, 11.06, 10.75, 10.4, 9.97, 8.22, 5.75, 4.15, 4.15, 4.8, 6.45, 5.95, 5.46, 2.39, 2.6, -0.0, -0.0, -7.59, -7.27, -0.0, -0.0, 9.83, 11.62, 12.52, 11.18, 6.64, 0.0, -10.73, -5.2, -5.4, -5.4, -8.53, -12.07, 5.2, 7.44, 8.68, 21.9, 27.72, 24.79, 18.39, 14.3, 12.22, 12.27, 11.99, 11.09, 0.0, -3.36, -3.31, -1.74, 0.0, 1.7, 4.94, 6.12, 0.0, 0.0, 12.27, 13.88, 14.47, 13.15, 12.39, 10.82, 10.82, 8.03, 8.03, 8.03, 8.25, 8.25, 8.61, 9.23, 9.23, 9.47, 9.47, 9.8, 9.8, 9.54, 9.92, 10.43, 10.43, 10.43, 10.89, 11.29, 11.29, 12.42, 12.84, 13.26, 13.34, 12.73, 12.79, 12.13, 11.9, 11.9, 12.07, 12.07, 12.62, 12.6, 12.94, 12.27, 12.07, 11.62, 11.09, 10.84, 10.75, 10.0, 9.08, 6.98, 5.75, 5.52, 6.44, 8.22, 5.7, 4.4, 2.39, 2.71, -0.0, -0.0, -8.53, -7.9, -7.59, -10.28, 9.83, 10.28, 8.22, 10.8, 10.8, 6.64, 9.83, -5.0, -5.4, -5.6, -11.2, -9.17, 0.0, 6.7, 7.93, 14.13, 24.14, 27.27, 26.37, 21.25, 14.88, 9.96, 9.08, 10.47, 7.13, 0.0, -5.39, -4.88, 0.0, 1.83, 2.57, -6.6, -9.12, -6.31, 15.69, 14.42, 15.04, 13.44, 13.75, 12.39, 12.39, 7.4, 7.4, 8.39, 8.61, 8.61, 8.61, 9.23, 9.23, 9.23, 9.23, 9.8, 9.8, 9.92, 9.92, 9.92, 10.43, 10.43, 11.29, 11.29, 11.7, 11.7, 12.5, 12.92, 13.34, 13.39, 13.16, 12.5, 12.27, 11.57, 11.69, 11.77, 11.77, 11.8, 12.04, 11.99, 12.45, 12.52, 12.07, 12.07, 11.51, 10.6, 10.4, 9.08, 6.7, 6.42, 6.71, 7.9, 7.27, 5.46, 4.4, 2.6, 2.71, -0.0, -4.6, -10.0, -10.73, -10.73, -10.28, 9.39, 10.28, 8.53, 7.9, 7.9, 7.59, -0.0, -8.22, -10.8, -12.96, -5.8, 0.0, 4.1, 6.0, 6.6, 12.01, 20.12, 19.28, 24.59, 16.87, 9.96, 8.53, 7.44, 8.3, 4.52, -4.3, -6.64, -1.78, 0.0, -11.06, -14.11, -9.22, -3.69, 2.05, 14.51, 14.36, 13.59, 12.79, 12.42, 12.42, 7.74, 7.74, 8.39, 8.61, 8.61, 8.61, 8.61, 9.23, 9.23, 9.23, 9.23, 10.19, 10.19, 10.19, 10.19, 10.43, 10.43, 10.83, 11.29, 11.7, 11.7, 12.12, 12.12, 12.57, 12.98, 13.02, 12.79, 12.79, 12.56, 12.36, 12.17, 12.17, 12.21, 12.04, 11.99, 12.22, 12.44, 12.52, 12.07, 12.07, 11.51, 10.4, 8.73, 7.27, 6.95, 7.59, 7.27, 7.27, 5.46, 5.7, 2.71, 3.39, -0.0, -0.0, -7.59, -11.62, -11.18, -10.73, -10.28, -10.28, 7.9, 7.9, 7.9, 10.8, 11.62, 12.52, -13.41, -12.52, -5.4, 0.0, 4.52, 10.12, 8.05, 6.2, 0.0, -19.67, 23.69, 15.99, 9.8, 9.17, 6.7, 6.67, 8.23, 2.45, -3.68, -4.62, -8.29, -13.99, -12.22, -6.6, -3.2, 0.0, 9.61, 12.01, 13.23, 11.88, 12.37, 12.37, 7.74, 7.74, 7.74, 8.39, 8.61, 8.61, 8.61, 9.23, 9.23, 9.23, 9.62, 10.19, 10.19, 10.19, 10.19, 9.92, 10.83, 10.83, 10.83, 11.7, 11.7, 11.79, 11.79, 12.22, 12.3, 12.3, 12.37, 12.79, 12.56, 12.74, 12.79, 12.17, 12.62, 12.45, 12.42, 11.87, 12.22, 12.42, 12.07, 12.07, 11.51, 11.03, 8.73, 8.53, 8.53, 7.27, 6.64, 6.95, 7.27, 5.7, 3.53, 3.39, 3.25, -0.0, -0.0, -9.6, -12.07, -11.62, -10.73, -11.18, 11.18, 10.0, 10.04, 11.2, 12.07, -12.96, -13.86, -8.85, -11.62, -5.2, 0.0, 12.27, 12.74, 9.48, 2.81, -8.2, 0.0, 0.0, 11.27, 12.01, 8.85, 5.9, 7.82, 7.95, 4.81, -6.9, -10.09, -9.66, -5.65, -1.68, -1.6, 0.0, 1.65, 7.82, 10.19, 12.01, 11.7, 11.7, 7.74, 7.74, 7.74, 8.39, 8.61, 8.61, 8.61, 9.23, 9.23, 9.23, 9.62, 10.19, 10.19, 10.19, 10.19, 10.33, 10.83, 10.83, 10.83, 10.95, 11.38, 11.79, 11.88, 11.88, 12.3, 11.95, 12.05, 12.5, 12.56, 12.74, 12.36, 12.79, 12.17, 12.21, 12.04, 11.99, 12.22, 12.22, 11.98, 12.07, 12.07, 11.03, 9.97, 8.38, 6.98, 8.22, 7.9, 7.27, 6.17, 5.0, 6.2, 3.25, 3.25, -0.0, -0.0, -0.0, -9.83, -11.18, -11.62, -11.18, 10.73, 10.0, 11.45, 8.22, 0.0, -8.85, -12.72, -14.3, 11.18, 0.0, 0.0, 6.9, 14.79, 16.27, 14.46, 13.59, 10.91, 0.0, 0.0, 12.07, 16.41, 9.22, 7.62, 8.37, 8.82, 0.0, -7.69, -5.92, -3.42, -2.45, -2.57, -1.56, 0.0, 5.37, 8.25, 10.46, 10.46, 10.46, 7.74, 7.74, 7.74, 8.39, 8.39, 8.61, 8.61, 8.61, 8.99, 9.37, 9.62, 9.62, 10.19, 10.19, 10.61, 10.33, 10.05, 10.83, 11.25, 11.25, 10.95, 11.06, 11.88, 11.88, 11.95, 11.6, 11.69, 12.13, 11.9, 12.27, 12.74, 12.36, 12.56, 12.62, 11.99, 12.04, 11.87, 12.22, 12.42, 12.07, 12.07, 11.91, 10.79, 9.58, 7.59, 10.04, 10.04, 7.59, 6.17, 5.0, 5.95, 3.25, 3.25, -0.0, -0.0, -0.0, -0.0, -8.22, -10.73, -11.18, -11.18, 0.0, 8.53, 0.0, 0.0, 0.0, -3.68, -7.19, 0.0, 7.27, 3.7, 2.71, 8.05, 22.12, 20.27, 16.28, 13.46, 10.43, 4.01, 7.3, 13.68, 12.31, 8.4, 7.93, 9.8, 10.86, 5.31, -2.02, -3.1, -2.89, -4.24, -4.24, -1.68, 0.0, 4.62, 5.98, 8.25, 8.25, 7.53, 7.53, 7.74, 7.74, 8.39, 8.39, 8.39, 8.77, 9.37, 9.37, 9.37, 9.62, 9.62, 10.61, 10.61, 10.33, 10.05, 10.05, 10.76, 10.47, 10.18, 11.06, 11.06, 11.17, 11.6, 11.6, 11.69, 10.99, 12.73, 11.97, 11.9, 12.36, 12.07, 12.17, 12.62, 11.99, 12.04, 12.3, 12.14, 12.42, 12.07, 12.07, 11.03, 9.97, 9.58, 8.94, 8.94, 8.58, 6.44, 6.2, 5.95, 3.25, 3.39, 2.6, -0.0, -0.0, -0.0, -0.0, -4.8, -10.28, -10.8, -8.22, -8.22, -5.0, 0.0, 11.18, 10.28, 0.0, 0.0, 4.48, 4.6, 2.1, 0.0, 13.28, 28.83, 19.27, 12.79, 9.3, 9.8, 12.64, 12.96, 10.73, 8.74, 8.97, 9.91, 11.38, 11.77, 9.22, 0.0, -2.72, -7.13, -6.4, -3.58, -1.68, 1.6, 3.07, 5.09, 5.09, 7.53, 7.53, 7.53, 7.74, 8.39, 8.77, 8.77, 8.77, 9.37, 9.37, 9.37, 9.37, 9.62, 9.62, 10.61, 10.33, 10.33, 10.47, 10.47, 10.47, 10.61, 10.61, 10.31, 11.17, 11.6, 11.26, 11.33, 10.99, 10.73, 12.37, 10.85, 11.69, 11.69, 12.17, 12.17, 12.39, 12.45, 12.25, 12.66, 12.42, 12.52, 12.52, 11.91, 10.79, 10.38, 10.38, 8.94, 7.59, 5.95, 5.95, 5.7, 3.25, 3.53, -0.0, -0.0, -0.0, -0.0, -0.0, -0.0, -10.18, -10.41, -7.59, -8.22, -9.6, -11.18, 11.18, 9.6, 10.28, 6.45, 5.8, 6.7, 7.9, 0.0, 5.98, 24.15, 22.9, 17.02, 12.27, 13.15, 14.75, 16.09, 16.48, 12.64, 12.64, 11.29, 11.7, 11.96, 12.16, 11.44, 9.48, 12.96, -13.41, -3.36, -2.02, 0.0, 1.89, 1.89, 1.89, 7.53, 7.53, 7.53, 7.89, 8.77, 8.77, 8.77, 8.77, 8.77, 9.37, 9.37, 9.37, 9.37, 10.05, 10.33, 10.33, 10.47, 10.47, 10.47, 10.18, 10.61, 10.31, 10.31, 10.75, 10.84, 11.26, 10.54, 10.99, 11.33, 11.07, 10.47, 10.99, 10.99, 12.17, 12.17, 11.88, 12.39, 12.66, 12.72, 12.58, 12.83, 12.52, 12.52, 11.21, 10.79, 10.38, 10.0, 7.59, 5.95, 5.95, 5.95, 3.53, 2.6, -0.0, -0.0, -0.0, -0.0, -0.0, -0.0, -7.59, -8.85, -7.9, -11.18, 11.18, 10.28, 10.73, -0.0, 7.59, 11.62, 11.2, 12.52, 12.52, 8.85, 8.43, 16.75, 22.23, 21.25, 18.24, 15.59, 17.2, 16.99, 16.99, 15.77, 13.59, 13.26, 12.03, 12.57, 12.0, 12.27, 13.01, 5.6, -0.0, -0.0, 0.0, 0.0, 0.0, 0.0, 0.0, 7.53, 7.53, 7.89, 7.89, 8.53, 8.77, 8.77, 8.77, 8.77, 9.37, 9.37, 9.37, 9.37, 10.05, 9.78, 9.78, 10.47, 10.47, 10.47, 10.47, 10.61, 10.31, 10.31, 10.75, 10.43, 10.87, 10.54, 10.99, 10.99, 11.07, 11.17, 10.82, 10.99, 10.99, 11.5, 11.88, 11.88, 12.11, 12.25, 12.56, 13.01, 12.96, 12.52, 11.91, 11.21, 10.79, 10.0, 7.9, 6.2, 5.95, 5.95, 3.53, -0.0, -0.0, -0.0, -0.0, -0.0, -0.0, -0.0, -0.0, -6.95, 11.62, 10.73, 11.18, 11.18, 11.18, 10.73, -11.18, 0.0, 0.0, 0.0, 0.0, 7.93, 11.06, 14.8, 19.19, 20.56, 16.37, 17.85, 18.48, 17.43, 16.76, 14.53, 10.75, 11.06, 11.8, 12.27, 13.19, 11.99, 12.14, 11.2, -0.0, -0.0, 12.52, 0.0, 0.0, 0.0, 0.0, 7.32, 7.32, 7.89, 7.89, 7.89, 8.53, 8.77, 8.77, 8.77, 8.77, 9.37, 9.37, 9.78, 9.78, 9.78, 9.78, 9.94, 9.94, 9.94, 9.94, 10.11, 9.82, 9.82, 9.97, 10.43, 10.87, 10.54, 10.54, 10.99, 11.07, 10.63, 11.17, 11.35, 10.99, 10.99, 10.99, 11.5, 11.72, 11.99, 12.56, 12.89, 12.83, 12.96, 12.52, 11.84, 11.84, 10.4, 8.22, 6.2, 6.2, 3.39, 3.39, -0.0, -0.0, -0.0, -0.0, -0.0, -0.0, -0.0, -0.0, -0.0, -4.0, 10.73, 10.28, 10.28, 11.18, -10.28, -10.73, -7.9, 0.0, 0.0, 0.0, 8.68, 15.19, 18.41, 16.91, 17.43, 18.42, 20.09, 21.68, 20.12, 16.22, 12.79, 9.17, 8.05, 10.37, 11.12, 10.73, 11.62, 12.96, 12.96, 9.17, -0.0, -0.0, 12.52, 0.0, -1.72, -1.72, 7.32, 7.32, 7.89, 7.89, 7.89, 8.53, 8.77, 8.77, 8.77, 8.77, 8.77, 9.78, 9.78, 9.78, 9.78, 9.78, 9.94, 9.94, 9.94, 10.4, 10.11, 9.82, 9.82, 9.97, 9.97, 10.43, 10.54, 10.54, 10.99, 10.58, 10.63, 11.17, 11.17, 11.35, 11.35, 10.59, 10.59, 11.16, 11.37, 11.99, 12.33, 12.46, 12.52, 12.96, 11.18, 12.07, 11.45, 8.22, 5.2, 5.0, 3.53, -0.0, -0.0, -0.0, -0.0, -0.0, -0.0, -0.0, -0.0, -0.0, -0.0, -2.97, -10.28, -9.83, 10.73, 11.18, -9.83, -10.28, -10.73, -7.59, 0.0, 0.0, 7.0, 18.78, 20.91, 17.53, 13.32, 16.48, 21.68, 21.49, 19.29, 16.91, 14.75, 10.79, 6.7, 9.17, 11.99, 12.04, 12.71, 12.96, 12.96, 11.99, 9.48, 13.41, 12.96, 12.96, 0.0, 0.0, 7.32, 7.32, 7.67, 7.89, 7.89, 7.89, 8.53, 8.53, 8.77, 8.77, 9.17, 8.93, 8.93, 9.52, 9.78, 9.52, 9.94, 9.94, 9.94, 10.4, 10.11, 10.11, 9.82, 9.97, 9.97, 9.67, 10.12, 10.54, 10.12, 10.58, 10.63, 10.63, 11.17, 10.69, 10.36, 10.94, 10.59, 11.16, 11.37, 11.99, 12.33, 12.46, 12.35, 12.96, 11.18, 12.07, 11.45, 8.53, 5.2, 5.0, 3.53, -0.0, -0.0, -0.0, -0.0, -0.0, -0.0, -0.0, -0.0, -0.0, -3.11, -2.97, -0.0, -9.39, 9.83, 10.73, 10.73, -10.28, -10.73, 0.0, 0.0, 0.0, 0.0, 15.59, 23.99, 22.36, 12.81, 11.44, 15.36, 16.09, 14.57, 14.11, 14.9, 14.31, 13.15, 13.01, 13.44, 13.86, 13.41, 13.41, 13.41, 13.41, 13.41, 13.41, 13.41, 12.96, 0.0, 0.0, 7.32, 7.32, 7.67, 7.67, 7.89, 7.89, 8.53, 8.53, 8.53, 8.93, 8.93, 8.93, 9.17, 9.17, 9.78, 9.78, 10.22, 9.94, 9.94, 10.11, 10.11, 9.82, 9.82, 9.44, 9.44, 9.67, 9.67, 10.12, 10.12, 10.58, 10.12, 10.63, 11.17, 10.69, 10.69, 10.69, 10.94, 10.09, 10.73, 10.91, 11.64, 11.6, 12.79, 11.84, 12.96, 11.62, 11.45, 5.4, 5.2, 5.0, -0.0, -0.0, -0.0, -0.0, -0.0, -0.0, -0.0, -0.0, -0.0, -2.97, -2.39, -2.97, -3.4, 9.83, 10.28, 10.28, 9.83, -10.28, -10.73, 11.18, 0.0, 0.0, 0.0, 3.79, 19.08, 26.82, 23.81, 13.97, 11.9, 11.53, 11.99, 12.45, 13.15, 13.41, 13.86, 14.3, 14.3, 14.75, 14.3, 13.86, 13.86, 13.86, 13.86, 13.86, 13.41, 13.41, 0.0, 0.0, 7.32, 7.32, 7.67, 7.67, 7.67, 7.67, 7.89, 8.53, 8.53, 8.93, 8.93, 9.17, 9.17, 9.17, 9.17, 9.17, 10.22, 9.94, 9.94, 10.11, 9.27, 9.27, 8.99, 9.44, 9.44, 9.16, 9.67, 9.67, 10.12, 10.12, 10.12, 10.3, 10.63, 10.69, 10.69, 10.69, 10.36, 10.43, 11.09, 11.28, 11.64, 11.6, 12.3, 12.27, 12.14, 13.41, 11.03, 5.0, 4.8, 4.8, -0.0, -0.0, -0.0, -3.25, -4.4, -4.2, -4.2, -2.83, -2.83, -2.28, -2.28, -5.21, -0.0, -0.0, -0.0, 10.28, 9.83, -10.73, -10.28, -11.18, 0.0, 3.68, 0.0, 0.0, 7.0, 20.56, 29.49, 27.27, 16.96, 12.39, 13.99, 14.75, 15.2, 15.93, 15.93, 14.99, 14.55, 14.75, 14.75, 14.3, 14.3, 14.3, 12.39, 12.39, 9.48, 0.0, 0.0, 0.0, 7.32, 7.32, 7.67, 7.67, 7.67, 7.67, 7.89, 8.53, 8.93, 8.93, 9.17, 9.17, 9.17, 9.17, 9.17, 9.17, 9.61, 9.35, 9.35, 9.54, 9.27, 9.27, 8.99, 9.44, 9.44, 9.44, 9.16, 9.16, 9.62, 9.62, 10.12, 10.12, 10.12, 10.12, 10.36, 10.69, 10.69, 10.12, 10.77, 10.52, 11.28, 11.16, 12.3, 12.04, 12.58, 12.96, 10.8, 7.59, 7.27, -0.0, -0.0, -0.0, -0.0, -0.0, -4.2, -4.2, -4.0, -2.83, -2.83, -2.17, -2.28, -4.0, -4.71, -0.0, -0.0, -0.0, -0.0, -7.27, -10.28, -11.18, 0.0, 0.0, 0.0, 0.0, 0.0, 16.09, 19.59, 30.79, 28.16, 21.46, 18.78, 17.64, 17.78, 17.97, 17.33, 16.54, 14.75, 14.3, 14.75, 14.3, 14.11, 13.88, 9.8, 9.48, 5.8, 5.8, 5.8, 5.8, 6.47, 6.47, 7.67, 7.67, 7.67, 7.67, 7.89, 7.89, 8.93, 8.93, 9.17, 9.17, 9.17, 9.17, 9.17, 9.17, 9.35, 9.35, 9.35, 8.83, 9.27, 8.99, 8.99, 8.99, 9.44, 9.44, 9.16, 9.16, 9.16, 9.62, 9.62, 10.12, 10.12, 10.12, 9.8, 10.12, 10.69, 10.12, 10.77, 10.86, 11.28, 11.16, 11.5, 12.04, 12.58, 12.96, 11.2, 8.22, 7.59, -0.0, -0.0, -0.0, -0.0, -0.0, -6.64, -6.32, -4.0, -3.8, -2.69, -2.17, -4.0, -4.0, -6.32, -7.59, -6.95, -0.0, -7.27, -7.59, -9.2, -11.18, 0.0, 0.0, 0.0, 0.0, 0.0, 0.0, 17.88, 23.69, 30.43, 24.39, 21.1, 20.37, 21.59, 20.78, 19.29, 16.99, 15.65, 14.55, 14.11, 13.57, 13.59, 12.39, 7.69, 7.44, 7.19, 7.19, 7.19, 7.19, 6.47, 6.47, 6.8, 7.67, 7.67, 7.67, 7.67, 7.67, 8.28, 8.93, 8.93, 8.93, 9.17, 8.93, 8.93, 8.93, 9.35, 9.09, 9.09, 8.83, 8.99, 8.99, 8.99, 8.99, 9.44, 9.16, 9.16, 9.16, 9.16, 9.62, 9.62, 9.57, 9.57, 10.12, 10.12, 10.12, 9.5, 10.12, 10.12, 10.12, 10.52, 11.53, 11.5, 12.04, 12.58, 12.52, 12.52, 12.07, 11.62, -0.0, -0.0, -0.0, -0.0, -0.0, -0.0, -6.01, -3.8, -3.6, -4.46, -3.8, -3.8, -4.0, -6.32, -7.07, -7.59, -6.95, -6.95, -8.4, -9.2, -10.73, 0.0, 3.25, 2.71, 2.45, 6.0, 14.3, 14.39, 18.33, 22.62, 23.59, 21.17, 22.5, 22.88, 22.11, 19.73, 17.88, 16.99, 15.87, 14.42, 12.87, 12.79, 6.94, 3.14, 3.14, 5.8, 5.6, 5.6, 5.6, 6.8, 6.8, 6.8, 7.45, 7.67, 7.45, 7.67, 8.05, 8.05, 8.93, 8.93, 8.93, 8.93, 8.93, 8.93, 9.09, 9.09, 9.09, 8.83, 8.83, 9.27, 8.99, 8.4, 8.4, 8.58, 8.58, 8.58, 8.58, 8.58, 8.58, 9.06, 9.06, 9.57, 10.12, 10.12, 9.5, 9.5, 9.5, 10.12, 10.12, 9.8, 10.3, 10.47, 10.37, 10.79, 11.2, 12.07, 12.07, 11.62, 11.62, -0.0, -0.0, -0.0, -0.0, -0.0, -6.32, -6.32, -3.8, -4.46, -4.46, -3.8, -5.1, -6.32, -6.64, -7.44, -7.27, -6.95, -6.32, -9.83, -10.28, 0.0, 2.6, 5.2, 3.96, 13.41, -0.0, 15.2, 16.09, 17.7, 15.64, 18.02, 24.68, 26.3, 21.28, 20.27, 19.07, 18.33, 16.76, 14.53, 13.19, 9.48, 3.82, 3.04, 3.04, 3.04, 2.93, 2.93, 2.93, 6.8, 6.8, 6.8, 6.8, 6.8, 7.45, 7.45, 8.05, 8.05, 8.05, 8.68, 8.68, 8.68, 8.68, 8.68, 9.09, 9.09, 8.83, 8.83, 8.83, 8.65, 8.4, 8.14, 8.14, 8.58, 8.58, 8.58, 8.58, 8.58, 8.58, 9.06, 9.06, 9.57, 9.57, 9.5, 9.5, 9.5, 9.5, 9.42, 9.13, 9.8, 9.48, 10.47, 10.37, 10.79, 11.2, 8.53, 0.0, 11.62, 11.62, 11.18, 10.73, 10.73, 10.28, 9.83, -9.83, -6.32, -6.01, -5.69, -4.46, -5.69, -6.01, -6.01, -6.32, -7.44, -6.95, -6.64, -6.64, -9.83, -8.8, 0.0, 0.0, 0.0, 8.85, 12.96, -0.0, 14.3, 15.2, 13.8, 10.33, 12.02, 22.23, 26.38, 23.95, 21.58, 19.96, 17.7, 14.84, 13.7, 9.17, 0.0, 0.0, 0.0, 0.0, 0.0, 0.0, 0.0, 0.0, 6.8, 6.8, 6.8, 6.6, 6.8, 7.45, 7.45, 7.82, 7.82, 8.05, 8.68, 8.68, 8.68, 8.68, 8.68, 8.22, 8.22, 8.22, 8.22, 8.22, 7.98, 8.4, 8.14, 8.14, 8.58, 8.58, 8.58, 8.58, 8.58, 8.58, 8.58, 9.06, 9.57, 8.94, 8.94, 8.94, 8.94, 8.78, 8.51, 9.13, 8.73, 9.48, 10.12, 9.17, 9.17, 8.85, 8.53, 0.0, 0.0, 11.62, -11.18, 11.18, 10.73, -10.73, -10.28, -9.83, -9.39, -8.0, -6.01, -4.46, -5.37, -5.69, -6.01, -7.15, -8.0, -9.2, -9.2, -8.8, -9.83, -9.83, -10.28, -4.8, 0.0, 12.07, 12.52, 13.41, 9.8, 10.12, 6.6, 9.39, 13.23, 17.47, 22.62, 23.88, 25.79, 21.46, 16.76, 12.04, 11.6, 12.52, 0.0, 0.0, 0.0, 0.0, 0.0, 0.0, 0.0, 0.0, 6.6, 6.6, 6.6, 6.6, 6.6, 6.6, 7.23, 7.82, 7.82, 7.82, 7.82, 8.43, 8.43, 8.43, 7.82, 8.22, 8.22, 8.22, 8.22, 7.98, 7.98, 8.14, 8.14, 8.14, 8.14, 8.58, 8.58, 8.58, 8.58, 8.58, 8.58, 9.34, 8.68, 9.22, 8.94, 8.94, 8.94, 7.95, 8.51, 8.05, 8.73, 8.3, 8.1, 9.17, 8.85, 8.85, 5.4, 0.0, 0.0, -8.22, -11.18, -11.18, -11.18, -10.73, -10.28, -10.28, -9.83, -9.39, -7.6, -6.7, -5.69, -6.08, -6.44, -7.6, -7.89, -8.67, -9.54, -9.33, -9.33, -9.33, -9.33, -9.75, -11.18, -12.07, 12.52, 12.96, -0.0, -0.0, 4.52, 10.43, 13.99, 13.23, 14.22, 20.83, 27.72, 22.35, 6.0, 3.25, 6.45, 11.2, 11.45, 3.68, 0.0, 0.0, 0.0, -6.95, -6.95, -6.95, 6.6, 6.6, 6.6, 6.6, 6.6, 6.6, 7.23, 7.59, 7.59, 7.82, 7.82, 8.43, 8.43, 8.43, 7.82, 8.46, 8.22, 8.22, 7.98, 7.98, 7.74, 8.14, 8.14, 8.14, 8.14, 8.58, 8.58, 8.58, 8.58, 8.58, 8.18, 8.68, 8.68, 9.22, 8.94, 8.94, 8.94, 7.95, 8.51, 8.05, 8.73, 8.3, 8.1, 7.51, 5.6, 3.96, 0.0, 0.0, 0.0, -8.22, -8.22, -7.9, -11.18, -10.73, -10.73, -10.28, -9.83, -9.39, -8.0, -7.07, -6.7, -6.08, -6.08, -7.2, -7.89, -8.94, -9.39, -9.75, -8.55, -9.2, -9.2, -6.95, -6.95, -11.18, -12.07, -12.52, -12.96, -9.17, -0.0, 10.43, 12.27, 12.27, 7.0, 18.78, 0.0, -0.0, -15.2, 0.0, 2.1, 5.75, 9.97, 8.22, 2.71, 0.0, 0.0, -6.95, -6.95, -6.95, 6.6, 6.4, 6.4, 6.4, 6.4, 6.4, 7.01, 7.59, 7.59, 7.59, 7.59, 7.59, 8.43, 8.05, 8.05, 8.22, 8.22, 7.98, 7.98, 7.74, 7.74, 8.14, 8.14, 8.14, 8.14, 8.14, 8.14, 8.14, 8.4, 8.18, 8.18, 8.18, 8.68, 8.68, 8.94, 8.94, 8.2, 7.95, 8.51, 8.05, 7.79, 8.3, 8.1, 6.44, 5.6, 2.93, 0.0, 0.0, 0.0, -5.2, -5.2, -8.22, -10.0, -10.73, -10.73, -10.28, -9.83, -9.39, -8.0, -8.48, -7.07, -6.44, -6.52, -7.06, -7.45, -7.01, -9.39, -9.39, -9.83, -10.28, -9.6, -7.59, -0.0, -4.4, -11.18, -11.62, -12.52, -12.96, -13.41, 13.86, 10.12, 10.12, -14.3, -16.99, 27.27, -0.0, -5.51, 12.07, 2.19, 3.07, 5.54, 6.98, 2.28, 0.0, -3.39, -6.95, -6.95, -6.95, 6.4, 6.4, 6.4, 6.4, 6.4, 6.4, 6.4, 7.36, 7.36, 7.59, 7.82, 7.82, 8.05, 7.82, 7.82, 8.22, 7.98, 7.98, 7.74, 7.74, 7.74, 8.14, 8.14, 8.14, 8.14, 8.14, 8.14, 8.4, 7.73, 8.18, 8.18, 8.18, 8.68, 8.68, 8.41, 7.68, 7.95, 7.95, 6.9, 7.44, 6.87, 6.43, 6.94, 6.44, 5.6, 2.93, 0.0, 0.0, -3.82, -3.68, 0.0, -5.2, -5.2, -11.18, -10.73, -10.28, -9.83, -9.39, -8.94, -8.48, -7.07, -7.2, -6.9, -7.06, -7.06, -7.5, -9.39, -9.39, -9.83, -9.39, -9.83, -10.28, 10.73, -0.0, -7.27, -11.18, -12.07, -12.52, -12.96, 12.96, 13.41, -13.86, -13.99, 24.39, 24.79, -0.0, -4.45, -0.0, 12.07, 3.82, 3.34, 4.55, 0.0, -5.2, -5.95, -8.55, -8.55, -8.55, 6.2, 6.2, 6.2, 6.2, 6.4, 6.4, 6.4, 7.36, 7.59, 7.82, 7.82, 7.82, 7.82, 7.82, 7.82, 7.98, 7.98, 7.98, 7.74, 7.74, 7.74, 7.1, 7.5, 7.5, 8.14, 8.4, 8.4, 8.4, 7.73, 7.73, 8.18, 8.18, 8.68, 8.41, 8.41, 7.68, 7.44, 7.95, 6.9, 7.44, 6.87, 6.43, 5.6, 6.44, 4.65, 2.93, 0.0, 0.0, 0.0, 0.0, 0.0, 0.0, -8.22, -11.18, -10.73, -10.28, -9.83, -9.39, -8.94, -8.48, -8.06, -7.2, -7.06, -7.21, -7.21, -7.21, -7.5, -7.6, -10.28, -10.28, -10.28, -9.2, -7.27, -10.28, -10.28, -10.73, -11.62, -12.07, -12.52, 12.52, -12.96, -13.44, -12.96, 11.8, 22.32, 9.8, -5.51, -2.63, -0.0, 3.68, 3.07, 1.84, -7.9, -9.3, -8.93, -8.55, -8.55, -8.55, 6.2, 6.2, 6.2, 6.2, 6.2, 6.4, 6.4, 7.59, 7.59, 7.59, 7.59, 7.82, 7.59, 7.59, 7.59, 7.98, 7.98, 7.98, 7.98, 7.1, 7.32, 7.32, 7.73, 7.73, 8.4, 8.4, 8.65, 8.65, 7.73, 7.73, 8.18, 8.18, 7.93, 8.41, 8.41, 7.44, 7.44, 7.95, 6.9, 7.44, 6.87, 6.43, 5.6, 5.6, 4.65, 2.37, 0.0, 0.0, 0.0, 0.0, 0.0, 0.0, -5.2, -7.9, -10.73, -10.28, -9.83, -9.39, -8.94, -8.94, -8.24, -7.81, -7.06, -7.21, -7.63, -7.63, -7.74, -7.97, -10.28, -10.73, -10.73, -10.18, -10.18, -9.2, -9.83, -9.83, -10.73, -8.22, -8.85, 12.52, -11.2, -13.15, -17.43, -0.0, 19.28, 14.54, -0.0, -2.37, -2.1, 11.18, 0.0, -5.2, -11.62, -10.6, -9.3, -8.8, -8.8, -8.8, 6.2, 6.2, 6.2, 6.2, 6.4, 6.4, 6.4, 6.73, 7.59, 7.59, 7.59, 7.59, 7.59, 7.59, 7.59, 7.98, 7.98, 7.98, 7.98, 7.32, 7.32, 7.32, 7.32, 7.97, 7.97, 7.97, 8.65, 7.73, 7.73, 7.73, 7.73, 7.93, 7.93, 7.93, 7.68, 7.44, 7.44, 6.42, 6.9, 6.3, 6.87, 6.43, 4.93, 3.96, 3.96, 2.37, 0.0, 0.0, 0.0, 0.0, 0.0, 0.0, 0.0, 0.0, -7.59, -10.28, -9.83, -9.39, -9.39, -8.94, -8.49, -7.81, -7.89, -7.94, -7.94, -7.74, -8.17, -8.43, -8.49, -10.73, -10.73, -10.41, -10.18, -10.28, -10.28, -10.28, -10.28, -7.9, -8.22, -12.07, -11.2, -14.16, -17.64, -14.86, 25.59, 23.32, 9.92, -0.0, -2.19, -6.2, -11.03, -11.62, -11.62, -11.62, -9.3, -8.55, -8.55, -8.55, 6.2, 6.2, 6.2, 6.2, 6.2, 6.2, 6.2, 6.73, 7.36, 7.36, 7.36, 7.36, 7.59, 7.59, 7.59, 7.98, 7.98, 8.22, 7.54, 7.54, 7.54, 7.54, 7.54, 7.97, 7.97, 7.97, 7.97, 7.73, 7.73, 7.73, 7.5, 7.93, 7.93, 7.93, 7.44, 7.44, 7.44, 6.42, 6.9, 6.3, 6.3, 5.8, 4.93, 3.96, 3.96, 2.06, 0.0, 0.0, 0.0, 0.0, 0.0, 0.0, 0.0, 0.0, 0.0, -10.28, -9.83, -9.83, -9.39, -8.94, -8.94, -8.49, -8.05, -7.89, -7.89, -8.38, -8.41, -8.43, -8.49, -10.28, -10.28, -10.73, -10.28, -9.83, -9.83, -8.8, -9.83, -10.28, 0.0, 0.0, -12.58, -13.86, -15.65, -19.22, 25.93, 27.72, 15.99, 4.12, -0.0, -5.0, -11.62, -9.67, -5.4, 0.0, -7.9, -9.3, -9.3, -9.3, 6.2, 6.2, 6.2, 6.2, 6.2, 6.2, 6.2, 6.52, 7.13, 7.36, 7.36, 7.59, 7.59, 7.59, 7.82, 7.82, 8.22, 7.54, 7.54, 7.54, 7.54, 7.54, 7.54, 7.54, 7.73, 7.97, 7.73, 7.73, 7.5, 7.5, 7.5, 7.5, 7.93, 7.69, 6.98, 7.44, 7.2, 6.42, 6.9, 5.8, 6.3, 5.8, 4.93, 3.44, 3.96, 2.06, 0.0, 0.0, 0.0, 0.0, 0.0, 0.0, 0.0, 0.0, 0.0, -7.27, -9.83, -9.83, -9.39, -8.94, -8.94, -8.49, -8.05, -8.24, -8.24, -8.24, -8.77, -8.82, -8.94, -10.28, -10.28, -9.97, -9.83, -9.39, -9.39, -9.39, -9.39, -9.39, 0.0, 11.62, -12.52, -13.41, -14.75, -17.43, 23.69, 27.72, 20.38, 12.96, -0.0, -3.36, -11.6, -10.79, -3.14, 0.0, -3.96, -6.94, -6.94, -6.94, 6.0, 6.0, 6.0, 6.2, 6.2, 6.2, 6.2, 6.2, 6.52, 7.36, 7.36, 7.59, 7.59, 7.82, 7.82, 7.82, 7.54, 7.54, 7.54, 7.54, 7.54, 7.32, 7.54, 7.54, 7.32, 7.32, 7.73, 7.5, 7.5, 7.5, 7.5, 7.5, 7.93, 7.69, 6.98, 6.76, 7.2, 6.42, 6.21, 6.67, 6.3, 5.27, 4.55, 3.44, 3.44, 1.77, 0.0, 0.0, 0.0, 0.0, 0.0, 0.0, 0.0, 0.0, 0.0, -4.6, -9.2, -9.83, -9.39, -8.67, -8.49, -8.49, -8.49, -8.49, -8.24, -7.07, -8.48, -8.67, -8.94, -8.94, -9.29, -10.84, -10.28, -9.39, -9.11, -9.11, -8.91, -9.83, -10.28, 0.0, 12.52, -13.41, -14.75, -16.22, 0.0, 27.72, 21.68, 13.91, 5.65, -0.0, -7.2, -13.19, -7.44, -4.24, 0.0, 0.0, 0.0, 0.0, 6.0, 6.0, 6.0, 6.0, 6.0, 6.2, 6.2, 6.2, 6.52, 7.36, 7.36, 7.59, 7.59, 7.82, 7.82, 7.82, 7.15, 7.54, 7.54, 7.54, 7.32, 7.32, 7.54, 7.54, 7.32, 7.32, 7.1, 7.1, 7.5, 7.5, 7.5, 7.5, 7.26, 7.69, 6.98, 6.76, 6.76, 6.21, 6.21, 6.67, 5.8, 5.27, 4.55, 4.55, 3.44, 3.44, 1.71, 0.0, 0.0, 0.0, 0.0, 0.0, 0.0, 0.0, 0.0, -4.6, -4.6, -9.83, -9.39, -8.94, -8.48, -8.24, -8.49, -8.49, -8.49, -8.06, -8.0, -8.0, -8.94, -8.94, -9.39, -11.18, -10.28, -10.73, -9.39, -9.83, -9.83, -9.83, -10.28, -10.73, -12.07, -12.3, -14.3, -15.34, -14.86, 27.72, 20.78, 14.54, 8.4, -0.0, -12.64, -16.54, -10.43, -4.1, 0.0, 3.14, 3.14, 3.14, 6.0, 6.0, 6.0, 6.0, 6.0, 6.0, 6.0, 6.2, 6.2, 7.36, 7.36, 7.59, 7.59, 7.59, 7.59, 6.94, 6.94, 6.94, 6.94, 7.32, 7.32, 7.32, 7.32, 7.32, 7.32, 7.1, 7.1, 7.1, 7.1, 7.5, 7.5, 7.26, 7.26, 7.69, 6.76, 6.76, 6.76, 6.21, 6.21, 6.67, 5.8, 5.27, 4.55, 4.39, 4.39, 3.44, 1.71, 0.0, 0.0, 0.0, 0.0, 0.0, 0.0, 0.0, -2.6, -3.25, -4.6, -6.95, -8.4, -9.39, -8.94, -8.06, -8.24, -8.38, -8.49, -8.49, -8.94, -8.94, -8.94, -8.94, -9.39, -9.39, -9.39, -11.62, -9.39, -9.64, -9.83, -9.83, -10.28, -10.73, -11.62, -12.96, -13.86, -14.47, -16.79, 25.03, 24.14, 18.79, 14.54, 20.12, 19.22, -17.43, -14.39, -6.4, 0.0, 7.19, 7.19, 7.19, 6.0, 6.0, 6.0, 6.0, 6.0, 6.0, 6.0, 6.2, 6.2, 7.36, 7.36, 7.59, 7.59, 7.59, 7.59, 6.94, 6.94, 6.94, 6.94, 7.32, 7.32, 7.32, 7.32, 7.32, 7.32, 7.1, 7.1, 7.1, 7.1, 7.5, 7.5, 7.26, 7.26, 7.69, 6.76, 6.76, 6.76, 6.21, 6.21, 6.67, 5.8, 5.27, 4.55, 4.39, 4.39, 3.44, 1.71, 0.0, 0.0, 0.0, 0.0, 0.0, 0.0, 0.0, -2.6, -3.25, -4.6, -6.95, -8.4, -9.39, -8.94, -8.06, -8.24, -8.38, -8.49, -8.49, -8.94, -8.94, -8.94, -8.94, -9.39, -9.39, -9.39, -11.62, -9.39, -9.64, -9.83, -9.83, -10.28, -10.73, -11.62, 12.52, -13.41, -12.79, -14.39, 0.0, 23.69, 21.01, 21.01, 21.01, 20.12, 13.59, 0.0, 0.0, 4.1, 9.17, 9.17, 9.17]}, {"header": {"dx": 0.06612293990616946, "dy": 0.0552356325346848, "nx": 98, "ny": 59, "la1": 35.046912555036876, "la2": 31.78801023549047, "lo1": -121.43107172385933, "lo2": -114.95102361305473, "refTime": "2026041812", "parameterCategory": 1, "parameterNumber": 3}, "data": [-15.72, -15.5, -15.5, -15.26, -15.03, -14.42, -13.97, -13.99, -13.84, -13.48, -13.15, -13.41, -13.86, -0.0, -8.53, -6.45, -5.98, -5.0, -4.32, -2.06, -0.0, -0.0, 1.91, 2.19, 2.71, 2.82, 8.53, 11.2, 10.8, 8.53, 0.0, 0.0, 0.0, 0.0, 0.0, 0.0, 0.0, 0.0, 4.2, 10.28, 8.8, 3.53, 0.0, -5.6, -7.0, -10.51, -12.4, -15.26, -12.93, -7.13, 12.79, 11.8, 9.12, 9.39, 9.39, 11.06, 9.77, 8.68, 6.16, 4.95, 0.0, -15.65, -10.75, 15.2, 6.8, 8.68, 7.2, 5.98, 4.42, 3.49, 3.16, 1.73, 0.0, 0.0, 0.0, 0.0, 2.43, 0.0, -2.43, -10.43, -14.3, 0.0, 0.0, 0.0, 0.0, 0.0, 0.0, -11.18, -10.0, -10.0, -12.3, -13.75, -14.64, -15.2, -14.64, -14.16, -12.89, -12.46, -15.72, -15.5, -15.5, -15.47, -14.88, -14.64, -13.8, -13.99, -13.59, -13.19, -12.98, -14.31, -13.41, -12.52, 0.0, -12.07, -5.95, -5.4, -4.48, -4.58, -3.68, -2.13, -0.0, 3.14, 4.8, 6.2, 8.22, 8.53, 3.82, -0.0, -0.0, -0.0, -0.0, 9.83, 5.69, 2.83, 1.95, 0.0, 0.0, 3.25, 0.0, -4.24, -5.8, -10.01, -14.29, -17.14, -18.72, -14.22, -9.8, 13.19, 11.8, 10.75, 7.82, 9.49, 10.75, 11.06, 9.77, 8.43, 7.76, 5.49, 4.3, 0.0, 0.0, 10.75, 10.75, 8.68, 7.2, 5.98, 4.42, 3.9, 3.59, 3.9, 0.0, 0.0, 0.0, 0.0, 2.09, 0.0, -2.43, -10.43, -14.3, 0.0, 0.0, 0.0, 0.0, 0.0, 0.0, -11.18, -10.0, -10.0, -12.3, -13.75, -14.64, -15.2, -14.64, -14.16, -12.89, -12.46, -15.5, -15.5, -15.5, -15.12, -15.26, -15.03, -14.42, -14.2, -13.38, -12.95, -13.07, -12.46, -13.15, -12.96, -8.22, 0.0, -8.22, -8.22, -6.21, -4.81, -4.58, -3.96, -3.96, -0.0, -0.0, 5.95, 7.59, 7.59, 2.71, -2.28, -2.89, -0.0, -0.0, 7.9, 8.49, 4.2, 2.17, 0.0, 0.0, -2.28, -4.65, -8.57, -11.96, -15.16, -17.06, -16.38, -12.96, -8.05, 12.27, 12.16, 10.75, 7.82, 7.82, 9.12, 10.43, 10.75, 9.49, 7.76, 7.0, 5.49, 5.49, 4.81, 3.69, 10.75, 10.75, 11.06, 8.05, 8.05, 7.0, 6.34, 6.54, 5.09, 2.21, 0.0, -6.6, -3.58, 0.0, 0.0, -2.02, -13.19, -10.12, -13.41, -12.96, -12.07, -8.22, 0.0, 0.0, 0.0, -7.9, -8.85, -11.88, -15.11, -15.61, -15.08, -14.75, -13.86, -12.83, -12.39, -15.5, -15.5, -15.5, -15.12, -14.88, -14.88, -14.64, -14.18, -13.58, -12.74, -13.02, -13.15, -13.88, -11.87, -10.8, -5.2, -3.68, -5.4, -8.22, -3.82, -3.07, -2.19, -3.53, -3.92, -1.71, -0.0, 4.6, 6.95, 4.4, -2.19, -6.21, -7.13, -5.81, -7.0, 0.0, 0.0, 0.0, -2.1, -3.96, -6.88, -10.89, -13.59, -13.91, -11.58, -9.12, -6.2, -2.28, 7.36, 9.22, 8.18, 6.6, 7.82, 7.59, 10.43, 10.43, 10.43, 8.43, 7.76, 7.0, 5.49, 3.69, 4.18, 7.59, 10.43, 10.43, 10.75, 9.77, 10.02, 11.35, 11.77, 9.42, 5.81, 3.39, 0.0, -7.93, -11.09, -7.59, -4.37, -2.15, -13.86, -9.48, -11.99, -11.6, -8.22, -7.9, -8.22, 0.0, -5.2, -7.9, -11.06, -12.64, -14.4, -14.38, -14.6, -13.41, -13.41, -12.96, -12.39, -15.5, -15.5, -15.5, -15.12, -14.88, -15.26, -14.64, -14.4, -13.42, -13.38, -13.19, -12.87, -14.03, -12.58, -11.45, -10.04, -8.22, -6.7, -11.62, -4.48, -2.13, -2.06, -0.0, -1.91, -1.33, -0.0, -0.0, 3.82, 5.0, -0.0, -6.44, -7.9, -9.08, -10.73, -14.3, -12.79, -10.75, -8.31, -10.6, -13.03, -12.63, -10.75, -7.44, -2.28, 0.0, 1.72, 3.47, 5.02, 5.81, 5.99, 6.6, 6.4, 7.36, 10.43, 10.43, 8.18, 7.54, 6.16, 7.0, 4.81, 3.2, 4.52, 8.58, 12.65, 12.27, 10.59, 9.42, 10.33, 12.96, 14.22, 10.91, 7.4, 7.58, 8.65, 3.07, -10.37, -11.88, -7.1, -4.38, -13.41, -7.78, -10.79, -10.04, -5.0, -6.71, -11.03, -10.04, -8.22, -10.18, -12.64, -12.33, -13.02, -12.27, -12.72, -12.96, -13.41, -12.96, -12.39, -15.5, -15.5, -15.5, -15.12, -14.88, -14.88, -14.88, -14.64, -13.65, -13.58, -13.38, -13.02, -13.28, -12.58, -11.87, -10.8, -10.8, -8.53, -10.8, -9.66, -3.19, -2.62, -2.2, -0.0, -0.0, -2.37, -4.48, -6.7, -9.17, -8.53, -9.83, -8.55, -8.82, -10.18, -12.07, -13.44, -12.33, -10.52, -10.75, -11.29, -10.87, -10.12, -5.15, 0.0, 0.0, 0.0, 1.63, 3.47, 3.93, 4.52, 4.38, 5.15, 7.13, 8.94, 7.59, 5.81, 5.81, 6.6, 5.34, 4.24, 3.01, 4.98, 10.43, 11.87, 11.38, 10.87, 11.16, 10.33, 10.61, 11.16, 8.9, 8.17, 8.9, 8.4, 5.8, 0.0, -9.48, -9.17, -2.54, -9.17, -8.53, -11.28, -10.79, -9.3, -9.97, -11.62, -13.44, -14.4, -14.82, -13.46, -13.1, -12.73, -12.73, -12.04, -12.96, -13.41, -12.79, -12.35, -15.5, -15.5, -15.5, -15.12, -15.12, -14.88, -14.88, -14.64, -14.03, -13.42, -13.2, -12.39, -13.28, -11.6, -11.99, -11.03, -10.04, -10.01, -9.77, -11.84, -5.4, -1.9, -3.81, -5.11, -4.65, -6.97, -8.22, -9.66, -11.2, -9.6, -7.9, -9.83, -9.83, -9.39, -11.18, -12.96, -12.42, -10.47, -7.26, -8.23, -11.87, -12.58, -12.79, -9.49, -7.76, -2.15, 2.28, 5.99, 4.87, 1.96, 2.35, 5.15, 7.36, 7.59, 5.31, 4.38, 4.52, 5.31, 3.93, 3.01, 3.25, 6.0, 9.12, 9.66, 13.23, 11.7, 9.42, 8.28, 5.81, 2.94, 2.55, 2.78, 2.11, 1.65, 1.69, 0.0, 0.0, 0.0, 4.98, 2.2, -12.07, -12.96, -13.86, -14.16, -15.2, -16.93, -18.65, -18.91, -16.8, -15.99, -15.11, -15.87, -15.04, -13.41, -13.41, -12.58, -11.62, -12.3, -15.12, -15.12, -15.12, -15.12, -15.12, -14.88, -14.51, -14.26, -13.89, -13.27, -13.2, -12.58, -12.27, -10.73, -9.8, -10.04, -10.41, -9.48, -9.17, -7.51, 0.0, 10.41, 0.0, -6.2, -9.8, -10.35, -10.8, -11.2, -9.08, -7.9, -7.9, -11.03, -11.18, -10.41, -11.06, -11.09, -11.18, -10.0, -7.51, -3.68, 0.0, -11.45, -12.45, -12.27, -10.43, 0.0, 5.81, 4.42, 3.2, 2.02, 2.45, 4.98, 7.13, 6.2, 6.2, 7.13, 6.2, 4.38, 3.68, 3.56, 3.04, 4.24, 3.69, 11.06, 15.27, 12.01, 7.6, 2.57, 0.0, 0.0, 0.0, 0.0, -2.0, -3.07, -2.98, -1.63, 1.77, 6.0, 5.11, 1.42, -1.56, -13.56, -14.68, -15.65, -17.38, -19.23, -20.04, -18.98, -17.89, -15.49, -14.94, -15.71, -13.23, -12.39, -13.41, -11.2, -10.35, -12.3, -15.47, -15.12, -15.12, -15.12, -15.12, -14.88, -14.51, -14.49, -13.89, -13.65, -13.03, -12.56, -13.99, -12.33, -11.5, -11.6, -11.5, -11.5, -9.17, -5.6, 0.0, 5.6, 5.8, 4.38, -13.01, -11.62, -9.13, -8.38, -7.73, -7.59, -11.4, -12.07, -12.52, -11.84, -11.06, -10.18, -10.73, -10.52, -9.67, 0.0, 0.0, -12.52, -11.2, -13.41, 0.0, 9.8, 0.0, 0.0, 2.28, 4.81, 7.59, 8.1, 8.38, 7.69, 7.69, 7.69, 6.88, 5.11, 4.39, 3.04, 1.55, 2.5, 0.0, 13.99, 15.27, 12.01, 4.79, 2.65, 0.0, -4.66, -3.16, -2.05, -3.59, -4.12, -2.89, -2.02, 0.0, 0.0, 0.0, 0.0, 0.0, -10.43, -13.88, -14.47, -15.83, -16.39, -16.82, -15.9, -15.87, -14.99, -12.96, -12.3, -10.79, -12.45, -13.15, -8.85, -9.42, -10.35, -15.09, -15.12, -15.12, -15.12, -15.12, -14.88, -14.51, -14.13, -13.51, -13.51, -13.27, -13.25, -12.03, -11.92, -13.57, -12.72, -13.15, -13.27, -13.15, -12.71, -12.14, -11.2, 0.0, 0.0, -9.48, -6.7, -5.46, -6.97, -10.47, -11.45, -12.52, -14.3, -13.86, -12.07, -11.62, -11.62, -10.41, -8.94, -8.22, 0.0, -12.07, -12.52, -0.0, -0.0, -0.0, 0.0, -9.48, -4.52, 0.0, 9.39, 10.43, 10.43, 10.12, 7.69, 7.69, 7.1, 6.2, 4.1, 2.72, 1.38, 0.0, 0.0, 5.51, 15.27, 15.27, 12.33, 5.65, 4.42, 0.0, -4.52, -6.6, -3.79, -4.23, -2.88, -3.39, -1.72, -4.24, -5.6, -4.1, -2.64, -1.3, 0.0, -14.18, -14.84, -12.87, -11.5, -11.09, -10.12, -10.12, -12.96, -10.37, -9.77, -11.2, -12.3, -12.79, -9.77, -10.12, -10.73, -15.09, -15.09, -15.12, -15.12, -15.12, -15.12, -14.51, -13.76, -13.76, -13.51, -13.14, -12.89, -12.65, -12.03, -13.99, -13.07, -13.7, -13.88, -14.64, -14.75, -15.53, -13.02, -6.6, -0.0, -0.0, -0.0, -0.0, -0.0, -9.2, -11.62, -11.84, -9.33, -9.83, -9.83, -9.83, -11.62, -11.62, -8.22, -5.2, -8.85, -12.96, -12.52, 0.0, 0.0, 0.0, 0.0, 0.0, 0.0, 9.17, 13.01, 13.19, 11.38, 8.28, 8.28, 7.2, 6.52, 5.23, 1.38, 0.0, 0.0, 0.0, 0.0, 11.7, 15.61, 15.78, 12.64, 10.66, 7.04, 2.98, 0.0, -5.15, -5.99, -4.62, -5.09, -3.3, -2.91, -4.58, -7.54, -8.31, -7.38, -6.66, -2.87, -1.78, -13.59, -11.38, -3.58, -2.98, 0.0, 0.0, 0.0, -11.87, -11.62, -11.87, -12.35, -13.23, -11.17, -10.82, -11.99, -15.09, -15.09, -15.12, -15.47, -15.12, -15.12, -14.51, -13.76, -13.76, -13.89, -13.51, -13.14, -12.89, -12.62, -11.68, -11.42, -10.12, -10.81, -12.72, -13.86, -13.39, -2.89, -0.0, -0.0, -0.0, -0.0, 3.82, 3.15, -0.0, -3.98, -5.0, -0.0, 4.8, 4.6, -0.0, -6.44, -6.44, -2.82, -3.68, -5.4, -0.0, 0.0, 11.62, 12.07, 9.6, 9.75, 8.53, 0.0, 0.0, 9.8, 0.0, 0.0, 0.0, 0.0, 3.77, 2.72, 2.22, 0.0, -1.2, -3.01, 0.0, 10.17, 17.1, 16.09, 15.61, 13.59, 12.99, 12.08, 5.53, 0.0, -4.05, -6.2, -5.18, -4.81, -3.56, -2.52, -4.58, -9.22, -10.3, -9.77, -9.66, -7.2, -4.12, -3.51, -4.55, -3.77, -2.87, -2.5, 0.0, 0.0, -6.94, -11.62, -11.46, -11.62, -11.87, -10.79, -12.27, -13.57, -15.09, -15.09, -15.09, -15.47, -15.47, -15.12, -14.51, -14.13, -13.76, -13.39, -13.51, -13.14, -12.52, -12.87, -12.56, -11.7, -10.47, -10.43, -10.36, -10.94, -12.79, -14.75, -0.0, -0.0, -0.0, -0.0, 1.21, 2.13, 0.93, -0.75, -1.58, -0.0, 1.84, 3.53, 1.84, -0.0, -1.76, -2.19, -0.0, -0.0, 5.2, 8.22, 10.6, 9.33, 9.2, 9.6, 8.22, -12.07, -12.96, -12.72, -12.27, -13.15, -13.28, -12.65, -13.59, -12.96, -9.0, 0.0, -2.0, -2.93, 11.38, 16.05, 17.43, 16.09, 18.33, 9.0, 13.41, 13.89, 11.0, 4.91, 0.0, -7.8, -4.52, -3.68, -2.7, -3.68, -4.66, -7.98, -9.66, -10.89, -11.38, -10.33, -8.53, -8.77, -3.33, -3.09, -5.4, -7.04, -5.09, -4.52, -4.38, -8.22, -10.0, -10.4, -10.73, -10.3, -10.12, -13.59, -15.09, -15.09, -15.47, -15.47, -15.47, -15.47, -14.51, -14.13, -14.13, -13.76, -13.15, -12.78, -12.78, -12.87, -12.92, -12.81, -11.78, -11.43, -10.19, -9.91, -8.16, -7.38, -10.75, -15.2, -4.95, -0.0, -0.0, -0.0, -0.0, -1.08, -0.97, -0.0, -0.0, -0.0, -0.0, -0.0, -2.02, -0.0, -0.0, 2.6, 5.95, 5.7, 9.6, 9.2, 9.83, 10.28, 0.0, -11.18, -11.03, -12.52, -12.52, -11.91, -11.61, -11.61, -11.87, -12.14, -15.18, -8.6, -5.2, 0.0, 9.8, 13.99, 16.54, 0.0, -16.54, -16.54, 0.0, 0.0, 0.0, 7.21, 7.49, 0.0, -8.2, -3.82, -4.08, -5.99, -7.4, -8.65, -9.87, -9.42, -12.01, -12.92, -10.3, -9.33, -7.76, -8.21, -8.87, -9.43, -8.97, -5.23, -3.93, -5.98, -6.97, -8.85, -9.48, -9.48, -9.17, -11.6, -15.09, -15.09, -15.47, -15.47, -15.47, -15.64, -15.26, -14.88, -14.13, -13.76, -13.39, -12.78, -13.15, -12.87, -12.84, -13.17, -12.81, -12.33, -11.78, -10.36, -8.94, -8.43, -8.4, -10.18, -15.34, -11.06, -2.15, -0.0, -0.0, -0.0, -0.0, -0.0, -0.0, -0.0, -0.0, -0.0, -3.39, -0.0, -0.0, 4.4, 7.27, 7.59, 6.95, 9.83, 9.83, 9.83, 9.83, 0.0, 0.0, -10.6, -11.4, -10.38, -9.6, -6.64, 0.0, -9.6, -11.28, -11.53, -8.2, 17.43, 5.8, -0.0, 0.0, -14.3, -14.75, -15.2, -16.54, -16.12, -14.39, 14.22, 19.51, 21.46, 0.0, -3.04, -6.9, -8.21, -8.65, -10.39, -9.42, -7.6, -5.51, -9.42, -8.68, -6.0, -7.19, -11.54, -9.73, -10.05, -9.66, -6.14, -5.37, -5.28, -7.54, -8.85, -6.9, -6.67, -7.78, -7.78, -15.09, -15.09, -15.47, -15.47, -15.47, -15.64, -15.26, -15.26, -14.49, -13.76, -13.39, -13.15, -13.15, -12.84, -13.18, -12.84, -12.78, -12.33, -12.13, -11.26, -10.13, -9.42, -8.94, -8.11, -8.68, -8.68, -10.75, -15.2, -0.0, -0.0, -0.0, -0.0, -0.0, -0.0, -0.0, -0.0, 2.49, 5.7, 5.95, 7.27, 6.64, 8.4, 10.28, 9.83, 9.83, 9.39, 9.83, 10.28, 7.27, 0.0, -7.9, -5.2, 5.2, 7.59, 8.4, 0.0, -7.27, -8.22, 0.0, 11.06, 12.07, 0.0, 0.0, 0.0, -12.07, -12.96, -12.96, -15.2, -16.09, 19.67, 21.46, 18.78, 16.79, 0.0, -3.69, -9.43, -9.89, -9.66, -10.17, 0.0, 10.17, 4.45, 0.0, 0.0, -1.71, -2.71, -9.48, -7.78, -5.8, -6.2, -6.16, -9.17, -10.37, -6.9, -4.55, -5.4, -8.85, -8.85, -15.09, -15.09, -15.47, -15.47, -15.26, -15.64, -15.64, -15.26, -14.88, -14.13, -13.39, -13.39, -13.51, -13.14, -13.18, -12.84, -12.84, -12.33, -11.86, -11.35, -9.67, -9.42, -8.74, -7.4, -5.41, -4.73, -5.09, -4.62, -3.9, -5.98, -11.06, -0.0, -0.0, -0.0, 4.0, 5.63, 5.9, 6.44, 7.27, 6.95, 6.95, 8.0, 9.2, 8.94, 9.83, 9.83, 10.28, 10.28, 7.27, 7.27, 7.27, 7.59, 7.9, 7.59, 0.0, 0.0, 0.0, 4.8, 10.8, 11.6, 8.85, 7.9, 7.59, 7.59, 7.59, -4.6, -11.03, -11.62, -13.86, 0.0, 0.0, -0.0, 0.0, 0.0, 0.0, -10.41, -10.66, -8.8, 0.0, 13.28, 9.92, 3.42, 0.0, 0.0, -1.77, -2.28, -3.82, -4.1, -6.0, -6.88, -5.99, -8.38, -10.01, -8.1, -6.0, -6.7, -8.85, -8.85, -15.09, -15.09, -15.47, -15.47, -15.26, -15.64, -15.64, -15.26, -14.88, -14.13, -13.76, -13.39, -13.14, -13.14, -13.18, -12.5, -12.75, -12.33, -11.56, -10.22, -9.17, -8.33, -7.78, -6.34, -4.15, -2.97, -4.01, -5.09, -4.73, -5.5, -5.49, -5.64, 0.0, 0.0, 10.73, 7.27, 5.06, 4.6, 5.46, 5.46, 6.95, 6.95, 8.8, 10.28, 10.28, 10.28, 10.73, 10.28, 7.27, 7.27, 7.27, 9.2, 7.27, 7.27, 0.0, 0.0, 3.25, 7.59, 10.0, 7.9, 5.4, 0.0, 0.0, 10.73, 10.73, 9.83, 0.0, -9.75, -11.71, -15.65, -14.22, -13.91, -17.59, -21.46, -17.43, -15.19, -14.88, -16.79, 0.0, 0.0, 0.0, -2.94, -4.91, -3.85, -6.0, -7.51, -7.78, 0.0, -6.9, -8.31, -6.4, -6.67, -8.22, -9.27, -9.31, -7.19, -8.85, -8.85, -15.09, -15.09, -15.09, -14.88, -15.26, -15.26, -15.64, -15.26, -15.26, -14.88, -13.76, -13.76, -13.51, -13.49, -13.23, -14.53, -12.5, -12.12, -10.92, -9.35, -8.11, -8.84, -9.17, -8.25, -7.0, -6.34, -5.11, -7.38, -7.76, -6.64, -5.31, -5.02, -2.2, 0.0, 0.0, 8.93, 5.7, 3.77, 2.19, 3.39, 5.46, 7.27, 10.0, 11.18, 11.62, 10.73, 10.73, 10.28, 7.27, 7.27, 9.2, 9.2, 9.2, 9.2, 9.2, 4.6, 4.6, 5.0, 5.4, 0.0, 0.0, 0.0, 0.0, 9.83, 9.83, 6.64, 0.0, -8.23, -8.38, -10.12, -17.88, -20.12, -12.89, -5.96, -8.2, -14.79, -12.33, -14.18, -16.99, -16.91, -12.01, -11.35, -9.92, -9.88, -11.38, -12.22, -12.56, -11.38, -10.12, -10.18, -9.16, -6.65, -8.59, -10.19, -9.8, -9.16, -9.8, -9.8, -15.09, -15.09, -15.09, -14.88, -15.26, -15.26, -15.26, -15.26, -15.26, -14.88, -14.13, -13.76, -13.51, -13.49, -13.49, -12.5, -12.92, -12.3, -13.41, -11.7, -10.25, -9.8, -10.71, -12.33, -12.03, -10.39, -9.71, -8.97, -8.51, -7.78, -6.21, -5.6, -3.82, -4.48, -3.68, 0.0, 5.95, 5.52, 5.52, 6.17, 8.58, 9.6, 10.84, 10.84, 11.18, 11.62, 10.28, 10.28, 10.28, 9.83, 9.83, 9.2, 9.6, 10.0, 6.95, 6.95, 6.2, 3.39, 3.39, 0.0, 0.0, 0.0, 0.0, 10.73, 10.28, 7.27, 0.0, -3.53, 0.0, 3.25, 3.24, 2.17, 1.85, 0.0, -4.56, -10.19, -18.33, -18.39, -17.43, -16.33, -13.97, -12.56, -12.01, -11.7, -12.92, -11.06, -10.12, -7.19, -9.8, -9.77, -11.16, -9.8, -10.75, -11.75, -12.11, -12.16, -11.2, -11.2, -15.43, -15.09, -14.88, -14.88, -14.88, -14.88, -15.26, -15.26, -15.26, -15.26, -14.13, -13.51, -13.51, -13.49, -13.49, -13.18, -12.5, -12.22, -11.9, -13.26, -12.33, -10.3, -11.38, -11.76, -11.76, -11.38, -10.43, -10.43, -9.96, -8.53, -8.22, -8.22, -6.45, -6.45, -8.22, 0.0, 11.18, 9.6, 8.93, 10.0, 10.38, 10.96, 10.96, 12.07, 11.62, 12.07, 9.83, 10.28, 10.28, 10.28, 9.83, 10.28, 10.73, 11.18, 9.6, 7.27, 6.2, 7.9, 3.68, 0.0, 0.0, 0.0, 0.0, 0.0, 7.27, 7.59, 0.0, 0.0, 9.17, 10.82, 11.88, 9.43, 4.87, 0.0, -8.14, -12.33, -18.52, -21.68, -21.38, -18.78, -16.02, -12.36, -10.43, -8.38, -7.69, 0.0, 13.41, 0.0, -2.63, -6.21, -9.62, -10.59, -11.1, -11.37, -12.87, -13.19, -12.9, -12.9, -14.85, -15.24, -14.88, -14.88, -14.88, -14.88, -14.88, -15.26, -15.26, -14.64, -14.26, -13.51, -13.51, -13.49, -13.49, -13.49, -13.18, -12.49, -12.49, -12.45, -11.38, -10.75, -10.81, -10.75, -10.95, -10.76, -10.19, -9.12, -8.66, -9.17, -10.04, -9.67, -9.67, -9.67, -8.22, -5.0, 0.0, 11.62, 11.18, 11.18, 11.18, 11.18, 11.18, 12.07, 11.18, 10.73, 10.73, 9.83, 0.0, 10.28, 10.28, 10.73, 10.73, 11.18, 10.73, 10.0, 9.67, 10.41, 8.22, 0.0, -0.0, -0.0, 7.9, 7.9, 7.9, 7.9, 8.22, 12.07, 12.96, 14.75, 11.06, 12.07, 12.19, 5.85, -10.46, -10.99, -13.59, -18.52, -20.63, -20.51, -18.33, -15.69, -11.38, -9.12, -3.47, 6.0, 0.0, -10.12, -8.18, -4.48, -7.54, -9.97, -10.69, -11.64, -13.88, -13.57, -13.19, -13.19, -14.85, -14.85, -14.85, -14.88, -14.88, -14.88, -14.88, -14.88, -14.64, -14.64, -14.26, -13.51, -13.51, -13.51, -13.49, -13.49, -13.18, -12.84, -12.45, -12.39, -11.29, -10.47, -9.53, -9.67, -9.53, -9.54, -9.66, -9.23, -8.06, -7.93, -8.38, -7.78, -8.53, -5.2, -2.82, 0.0, 0.0, 3.68, 8.22, 9.67, 11.28, 11.4, 11.62, 11.4, 11.4, 10.84, 10.73, 9.39, 0.0, 10.28, 10.28, 10.73, 10.73, 11.18, 10.73, 10.73, 11.18, 12.3, 12.96, 9.39, -0.0, -0.0, -0.0, 8.22, 10.0, 10.0, 11.62, 0.0, 0.0, -12.52, -13.86, 0.0, 26.37, 13.86, -9.39, -9.42, -10.23, -10.75, -15.77, -18.96, -19.03, -16.99, -15.43, -14.53, -13.19, -11.53, -12.39, -12.27, -12.0, -12.64, -9.73, -10.58, -11.29, -11.17, -14.03, -13.75, -13.39, -13.39, -14.85, -14.85, -14.85, -14.85, -14.88, -14.88, -14.88, -14.64, -14.64, -14.64, -14.26, -13.51, -13.51, -13.51, -13.49, -13.49, -12.78, -12.45, -12.45, -12.01, -11.19, -10.33, -9.09, -8.65, -8.14, -8.4, -9.12, -8.68, -8.4, -7.82, -7.58, -6.88, -5.11, -3.44, -1.64, 0.0, 0.0, 4.15, 4.32, 6.97, 9.3, 10.79, 10.79, 11.4, 11.4, 10.84, 12.52, 7.9, 10.73, 11.18, 11.62, 11.18, 10.73, 10.73, 10.28, 10.28, 10.28, 12.07, 12.96, 11.62, 0.0, -6.64, -7.9, -0.0, 10.0, 10.8, 12.07, 12.52, 0.0, -11.18, -10.6, -0.0, 25.93, 28.16, 0.0, -13.01, -11.99, -8.1, -7.59, -10.75, -16.09, -16.91, -17.1, -16.54, -16.99, -16.41, -16.15, -16.38, -16.79, -14.88, -12.01, -10.3, -9.8, -7.69, -10.12, -12.27, -12.39, -12.39, -14.85, -14.85, -14.85, -14.85, -14.85, -14.49, -14.64, -14.64, -14.64, -14.64, -14.26, -13.51, -13.51, -13.51, -13.14, -13.18, -12.84, -12.45, -12.09, -11.7, -11.59, -10.61, -9.78, -9.35, -8.65, -8.4, -8.85, -8.85, -8.43, -7.92, -7.06, -6.4, -4.98, -4.1, -1.38, 0.0, 0.0, 1.58, 3.07, 5.2, 5.98, 8.22, 9.58, 10.38, 10.38, 9.6, 9.67, 8.93, 8.18, 9.54, 10.41, 12.52, 10.73, 7.59, 7.27, 10.28, 10.28, 0.0, 0.0, 0.0, 0.0, -6.64, -9.83, -0.0, 10.4, 10.8, 10.8, 8.53, -0.0, -10.4, -11.16, -13.02, 0.0, 0.0, 12.39, -9.2, -10.73, -9.77, -7.36, -6.0, -8.31, -16.09, -18.47, -19.84, -19.14, -18.33, -18.7, -18.11, -16.32, -15.65, -16.99, -8.18, -3.47, -2.89, -2.63, -6.2, -8.66, -8.66, -14.46, -14.46, -14.46, -14.85, -14.85, -14.64, -14.26, -14.26, -14.64, -14.64, -13.88, -13.88, -13.51, -13.23, -12.84, -12.84, -12.84, -12.45, -12.09, -12.09, -11.59, -11.13, -10.61, -9.78, -9.09, -8.22, -8.4, -7.93, -7.93, -7.68, -7.68, -5.73, -4.58, -3.53, -2.45, 0.0, 0.0, 1.39, 2.71, 3.07, 5.0, 7.26, 8.73, 9.58, 9.2, 8.58, 8.22, 8.55, 8.8, 9.54, 10.84, 11.18, 12.52, 8.53, 7.9, 7.59, -0.0, 0.0, 0.0, -8.22, -5.4, -5.4, -6.64, 0.0, 10.0, 10.8, 11.2, 5.6, -9.17, -12.52, -10.04, -11.9, -9.42, 0.0, 0.0, 0.0, -5.31, -9.92, -8.3, -7.26, -8.38, -11.88, -16.99, -17.98, -16.27, -17.43, -16.44, -15.43, -13.19, -12.16, -15.77, -5.23, -4.81, -4.3, -3.36, -3.93, -6.2, -6.2, -14.79, -14.79, -14.26, -14.64, -14.64, -14.64, -14.26, -14.26, -14.26, -14.26, -13.88, -13.88, -13.23, -13.23, -13.23, -12.84, -12.84, -12.09, -12.09, -11.7, -11.7, -10.83, -10.33, -9.78, -8.93, -8.46, -8.65, -8.18, -8.41, -7.44, -6.42, -6.42, -5.36, -4.81, -3.6, -1.25, 0.0, 0.0, 0.0, 1.64, 3.53, 5.2, 7.26, 8.38, 8.03, 8.94, 7.9, 7.27, 8.18, 8.8, 10.41, 10.84, 10.28, 9.2, 5.0, -0.0, -0.0, -0.0, 0.0, 0.0, -8.53, -7.9, -7.9, -7.59, 12.52, 8.22, 5.4, -0.0, -11.6, -12.96, -12.3, -11.99, -13.19, -12.01, 0.0, 19.28, 0.0, -10.12, -8.3, -8.53, -8.93, -9.96, -13.57, -15.04, -16.6, -17.79, -16.99, -11.06, -5.64, -11.52, -14.75, -16.41, -9.67, -8.21, -6.8, -6.4, -7.1, -7.1, -14.62, -14.62, -14.26, -14.64, -14.64, -14.64, -14.64, -14.26, -14.26, -14.26, -14.26, -13.59, -13.59, -13.59, -13.59, -12.84, -12.84, -12.5, -12.09, -11.7, -11.7, -11.25, -11.25, -10.05, -9.52, -8.68, -8.22, -8.22, -7.73, -7.21, -6.64, -6.64, -5.55, -4.81, -3.6, -2.72, -1.38, 0.0, 0.0, 0.0, 1.64, 5.2, 6.98, 7.27, 6.95, 7.59, 7.27, 7.27, 8.18, 8.55, 10.84, 10.18, 10.73, 10.28, 7.59, -0.0, -0.0, -0.0, -0.0, -0.0, -7.9, -7.9, -7.9, -5.4, 0.0, 0.0, -0.0, -0.0, -10.8, -12.96, -13.57, -10.12, -10.73, -12.39, -15.2, -0.0, 0.0, -10.66, -9.8, -9.17, -10.04, -9.52, -10.59, -12.27, -12.89, -15.41, -13.27, -7.0, -9.77, -13.19, -14.4, -16.09, -13.46, -12.01, -9.92, -10.18, -8.83, -8.83, -14.62, -14.62, -14.62, -14.26, -14.64, -14.64, -14.64, -14.26, -14.26, -14.26, -14.0, -13.59, -13.59, -13.59, -13.59, -13.23, -12.5, -12.5, -12.5, -11.7, -11.7, -10.95, -10.95, -10.47, -9.67, -9.67, -8.83, -8.22, -7.73, -7.43, -6.4, -6.64, -5.73, -4.98, -3.73, -3.96, -2.72, -1.55, 0.0, 0.0, 1.64, 3.68, 6.98, 8.53, 8.53, 7.27, 6.64, 6.95, 7.27, 8.55, 10.6, 10.18, 9.75, 10.28, 10.73, 4.8, -0.0, -0.0, -0.0, -0.0, 0.0, -5.0, -6.7, -5.6, 0.0, -0.0, -0.0, 8.85, -0.0, -10.4, -13.86, -8.18, -5.46, -9.48, -14.03, -16.39, -21.9, -19.22, -15.02, -12.01, -8.85, -8.42, -9.77, -9.08, -12.04, -11.5, -8.83, -12.87, -15.07, -15.11, -16.01, -16.99, -16.46, -14.07, -13.59, -12.01, -11.7, -11.7, -14.62, -14.62, -14.62, -14.26, -14.64, -14.64, -14.64, -14.26, -14.26, -14.26, -14.0, -13.59, -13.59, -13.59, -13.59, -12.92, -12.5, -12.5, -12.5, -11.79, -11.38, -10.95, -10.18, -10.18, -9.67, -9.39, -9.27, -8.65, -7.73, -7.43, -7.21, -6.4, -6.64, -5.55, -4.81, -3.6, -2.72, -2.72, -1.5, 0.0, 0.0, 3.68, 5.98, 6.7, 8.73, 8.22, 7.9, 7.27, 8.23, 10.0, 9.3, 9.75, 9.75, 10.28, 10.73, 10.73, -0.0, -0.0, -0.0, -0.0, 0.0, -5.0, -3.82, -8.22, -12.07, -8.85, -4.24, -0.0, 0.0, -9.83, -10.73, -11.5, -6.34, -4.88, -8.03, -13.59, -16.37, -17.43, -18.33, -16.09, -13.13, -11.52, -10.48, -9.3, -7.56, -14.3, -11.53, -13.02, -14.81, -15.91, -15.43, -15.57, -15.65, -16.12, -14.85, -13.95, -13.95, -13.95, -14.62, -14.62, -14.62, -14.26, -14.26, -14.64, -14.64, -14.64, -13.89, -13.63, -14.0, -14.0, -13.59, -13.59, -13.26, -12.92, -12.57, -12.5, -12.12, -12.12, -11.79, -11.06, -10.18, -10.18, -9.39, -9.82, -8.99, -8.4, -7.93, -8.18, -7.43, -7.21, -6.85, -5.73, -6.0, -4.81, -3.96, -2.72, -1.55, 0.0, 0.0, 1.98, 4.32, 5.75, 7.59, 6.7, 6.7, 7.59, 8.23, 10.0, 8.93, 9.75, 9.75, 10.73, 10.73, 10.73, 10.28, 8.22, -0.0, -0.0, -0.0, -11.62, -8.53, -11.62, -12.07, -11.62, -11.03, -10.79, -12.07, -7.27, -8.63, -10.84, -13.42, -5.53, -5.53, -7.4, -9.61, -10.43, -16.05, -18.26, -17.1, -14.77, -13.2, -11.9, -9.8, -9.31, -13.28, -14.16, -13.96, -14.47, -14.13, -14.13, -15.11, -15.65, -15.41, -14.94, -14.85, -14.85, -14.22, -14.22, -14.62, -14.62, -14.26, -14.26, -14.26, -14.03, -13.63, -13.63, -13.63, -14.0, -14.0, -13.26, -13.26, -12.92, -12.57, -12.57, -12.56, -12.22, -11.88, -11.06, -11.06, -10.31, -9.82, -9.82, -8.99, -9.16, -9.09, -6.98, -7.93, -7.21, -7.68, -6.64, -5.73, -6.0, -4.81, -4.1, -3.04, -1.55, 0.0, 0.0, 3.68, 5.98, 5.75, 6.71, 6.71, 6.44, 8.58, 9.3, 8.93, 9.75, 10.18, 10.41, 10.28, 10.28, 11.18, 11.18, 9.6, -0.0, -5.4, -8.22, -8.22, -10.0, -11.62, 0.0, 0.0, -11.62, -12.52, -11.21, -9.2, -10.52, -13.86, -13.28, -3.6, -5.78, -6.4, -6.97, -9.8, -12.64, -12.96, -14.3, -14.57, -12.82, -12.11, -11.38, -10.3, -11.52, -14.3, -13.59, -11.88, -12.79, -14.31, -15.11, -16.01, -15.34, -15.27, -15.27, -14.22, -14.22, -14.22, -14.62, -14.26, -14.03, -14.03, -14.03, -13.63, -13.63, -13.63, -13.63, -14.0, -14.0, -13.26, -12.92, -12.92, -12.22, -12.22, -12.22, -11.5, -11.5, -11.17, -10.31, -9.82, -9.53, -9.44, -9.16, -8.78, -8.83, -7.89, -7.44, -7.44, -6.64, -6.64, -6.2, -4.98, -5.45, -2.81, -1.55, 0.0, 0.0, 1.98, 4.32, 4.15, 4.15, 6.71, 7.59, 8.93, 8.93, 8.55, 9.75, 10.6, 10.73, 10.28, 10.73, 10.73, 10.73, 10.28, 3.39, -2.6, -7.59, -8.22, -4.8, -0.0, 0.0, 4.8, 0.0, -9.67, -11.6, -10.04, -7.9, -11.62, -14.94, -14.49, -7.63, -6.81, -8.18, -4.38, 0.0, 0.0, -4.12, -12.64, -12.64, -12.7, -11.7, -10.77, -9.12, -8.58, -9.48, 0.0, -0.0, -13.44, -14.16, -14.3, -15.08, -15.08, -15.08, -14.22, -14.22, -14.22, -14.03, -14.03, -14.03, -14.03, -14.03, -14.03, -13.63, -13.63, -13.63, -13.63, -13.7, -12.92, -12.92, -12.22, -12.22, -12.22, -11.88, -11.5, -11.17, -11.17, -10.75, -10.01, -9.53, -9.67, -9.16, -9.44, -9.06, -8.38, -7.69, -7.69, -6.64, -6.64, -7.13, -6.2, -5.63, -4.24, -3.14, -1.83, 0.0, 0.0, 4.48, 4.32, 4.15, 5.0, 7.59, 8.93, 8.93, 8.93, 10.6, 10.41, 10.28, 10.28, 10.28, 10.28, 9.83, 10.28, 7.59, -8.85, -7.9, -0.0, 0.0, 0.0, 0.0, 10.73, 7.59, 0.0, -5.6, 0.0, 0.0, -8.85, -12.65, -16.75, -13.34, -5.31, 6.08, 7.8, 2.87, 0.0, 0.0, -6.31, -10.19, -10.61, -10.69, -10.05, -9.33, -7.36, -3.25, 11.2, 12.52, 12.52, -13.41, -13.41, -14.75, -15.2, -15.2, -14.22, -14.22, -14.03, -14.03, -13.65, -14.03, -14.03, -14.03, -14.03, -13.63, -13.63, -13.63, -13.63, -13.7, -13.34, -13.34, -12.22, -12.22, -12.22, -12.22, -11.5, -11.17, -11.17, -10.75, -10.43, -9.97, -9.67, -9.16, -9.16, -9.06, -8.94, -8.66, -7.69, -7.69, -6.9, -7.13, -7.13, -6.73, -5.45, -4.71, -3.25, 0.0, 0.0, 1.98, 4.48, 4.32, 5.0, 7.9, 9.3, 8.93, 8.93, 10.6, 10.73, 10.28, 10.73, 10.28, 9.83, 9.83, 9.83, 10.28, 6.95, 0.0, 0.0, 0.0, 0.0, 0.0, 0.0, -0.0, -11.18, -12.07, -12.52, -13.86, -11.9, -11.06, -12.95, -9.6, 0.0, 10.91, 10.2, 5.28, 0.0, -2.79, -5.81, -10.75, -11.06, -8.85, -8.18, -6.6, -6.0, -3.04, 5.6, 12.52, 12.52, 0.0, -12.96, -12.96, -14.75, -14.75, -13.83, -13.83, -14.03, -14.03, -14.03, -13.65, -14.03, -14.03, -14.03, -14.03, -13.63, -13.63, -13.34, -13.34, -13.34, -13.34, -12.65, -12.65, -12.65, -12.65, -11.94, -11.6, -11.6, -10.87, -10.43, -9.97, -9.67, -9.67, -9.16, -9.06, -9.57, -8.94, -7.95, -7.69, -7.69, -7.69, -6.9, -6.51, -6.0, -4.71, -3.68, -1.83, 0.0, 0.0, 2.37, 2.37, 5.2, 8.22, 9.3, 9.3, 10.18, 10.18, 10.73, 10.73, 10.28, 9.83, 9.83, 9.83, 9.83, 10.28, 10.28, 8.0, 0.0, 0.0, 0.0, 0.0, -0.0, -0.0, -7.9, -11.18, -12.96, -12.96, -13.02, -7.6, -5.52, -4.23, 0.0, 6.91, 7.53, 3.1, 0.0, -3.24, -6.4, -9.17, -10.73, -7.78, -6.67, -6.44, -4.65, 0.0, 0.0, 9.17, 12.96, 12.96, 0.0, -12.96, -13.75, -13.75, -13.83, -13.83, -14.03, -14.03, -14.03, -13.65, -14.03, -14.03, -14.03, -14.03, -14.03, -13.34, -13.34, -13.34, -13.34, -13.34, -12.65, -12.65, -12.65, -12.29, -11.94, -11.6, -11.6, -10.87, -10.87, -10.43, -9.67, -9.67, -9.16, -9.62, -9.57, -8.94, -8.94, -7.95, -7.95, -8.23, -8.23, -7.44, -7.11, -6.0, -5.28, -3.56, 0.0, 0.0, 0.0, 0.0, 3.82, 8.22, 10.4, 10.0, 10.6, 10.73, 10.73, 10.73, 9.83, 9.83, 9.83, 9.39, 9.83, 9.83, 9.83, 8.91, -0.0, -0.0, 0.0, 0.0, -0.0, -0.0, -0.0, -7.59, -11.62, -12.96, -13.99, 0.0, -2.09, -3.51, -3.81, -4.12, -5.42, -6.14, -3.86, -4.23, -3.69, -7.19, -10.04, -9.17, -6.0, -4.81, -2.54, 0.0, 0.0, 6.0, 9.48, 0.0, 0.0, 0.0, -13.41, -13.41, -13.83, -13.83, -13.64, -14.03, -14.03, -14.03, -13.65, -13.65, -14.03, -14.03, -13.76, -13.39, -13.39, -12.98, -13.34, -12.98, -12.65, -12.65, -12.65, -12.29, -11.94, -11.94, -11.6, -10.87, -10.87, -10.54, -10.12, -9.67, -10.12, -9.62, -9.57, -9.57, -8.94, -9.5, -9.21, -8.51, -8.23, -7.44, -7.11, -6.0, -5.28, -3.56, -2.06, 0.0, 0.0, 0.0, 3.82, 8.53, 10.4, 10.0, 10.6, 10.73, 10.73, 10.28, 9.83, 9.83, 9.39, 9.39, 9.39, 9.83, 9.33, 8.91, 10.73, -0.0, 0.0, 0.0, 0.0, -0.0, -0.0, -11.18, -11.18, -12.96, -14.75, -7.8, -2.67, -4.47, -7.32, -10.01, -12.29, -12.07, -8.74, -5.64, -2.98, -3.58, -4.38, -3.25, -3.36, 0.0, 0.0, 0.0, 0.0, 0.0, 0.0, 0.0, 0.0, 0.0, -13.41, -13.41, -13.83, -13.83, -13.64, -13.64, -14.03, -14.03, -13.65, -13.65, -13.65, -13.39, -13.39, -13.39, -13.76, -13.76, -13.34, -13.34, -13.01, -12.65, -12.65, -11.94, -11.94, -11.6, -11.6, -11.33, -11.33, -10.54, -10.54, -10.12, -10.12, -9.62, -10.12, -9.57, -8.94, -9.5, -9.5, -9.5, -8.51, -8.83, -8.05, -7.79, -6.65, -5.8, -2.13, -2.37, 0.0, 0.0, 3.82, 10.8, 10.4, 10.0, 11.18, 10.73, 10.73, 10.28, 9.83, 9.83, 9.39, 8.94, 9.39, 8.91, 9.54, 8.91, 6.8, 0.0, 0.0, 0.0, 0.0, -0.0, -0.0, 0.0, -11.18, -11.62, -13.86, -15.18, -4.77, 0.0, -3.97, -7.98, -7.93, -7.69, -6.0, -4.98, -2.63, 0.0, 0.0, 0.0, 0.0, 0.0, 0.0, 0.0, 0.0, 0.0, 0.0, 0.0, 0.0, 0.0, -12.96, -13.41, -13.83, -13.83, -13.64, -13.64, -13.64, -13.64, -14.03, -13.65, -13.65, -13.39, -13.39, -13.76, -13.76, -13.76, -13.76, -13.76, -13.01, -12.65, -12.65, -11.94, -12.05, -12.05, -11.69, -11.33, -11.33, -10.99, -10.54, -10.54, -10.12, -10.12, -10.12, -9.27, -9.57, -9.5, -9.5, -9.5, -9.21, -9.13, -8.31, -8.05, -6.65, -5.8, -4.1, -2.45, -3.04, 0.0, 3.68, 10.0, 9.6, 9.6, 10.73, 10.28, 10.28, 9.75, 8.8, 8.4, 8.4, 8.48, 8.48, 9.11, 9.11, 7.81, 10.73, 9.83, 9.83, 0.0, 0.0, -0.0, -0.0, -0.0, -11.62, -11.03, -12.96, -13.86, -13.99, 0.0, 7.37, 0.0, -5.65, -6.2, -4.66, 0.0, 0.0, 2.28, 2.28, 2.5, 2.43, 0.0, 0.0, 0.0, 0.0, 0.0, -6.2, -6.2, -9.48, -12.96, -12.96, -12.96, -13.83, -13.83, -13.64, -13.64, -13.64, -13.64, -14.03, -13.65, -13.39, -13.39, -13.76, -13.76, -13.76, -13.76, -13.76, -13.76, -13.46, -13.1, -13.1, -12.4, -12.05, -12.05, -11.69, -11.33, -11.33, -11.33, -10.99, -10.99, -10.58, -10.58, -10.12, -10.12, -10.12, -10.12, -9.21, -9.5, -9.5, -10.12, -9.42, -9.02, -8.05, -7.44, -4.1, -4.81, -3.14, 0.0, 5.4, 7.59, 7.27, 10.28, 10.28, 9.83, 9.83, 9.83, 8.4, 8.4, 8.0, 8.48, 8.48, 8.67, 9.11, 8.0, 7.07, 9.83, 9.83, 9.83, 10.28, 7.27, -0.0, -0.0, -11.62, -11.18, -12.96, -12.52, -14.75, 0.0, 9.8, 7.7, 0.0, 0.0, 0.0, 2.94, 4.45, 3.59, 1.93, 0.0, 0.0, 0.0, 0.0, 0.0, -2.35, -3.47, -9.8, -9.48, -11.6, -11.6, -11.6, -11.6, -13.75, -13.75, -13.64, -13.64, -13.64, -13.64, -14.03, -14.03, -13.39, -13.39, -13.76, -13.76, -13.76, -13.76, -13.76, -13.76, -13.1, -13.1, -13.1, -12.37, -12.05, -11.69, -11.69, -11.69, -11.33, -11.33, -10.99, -10.99, -10.99, -10.58, -10.58, -10.12, -10.12, -10.12, -9.8, -10.12, -9.5, -10.12, -9.42, -9.31, -8.05, -7.44, -6.9, -4.81, -3.14, 0.0, 5.6, 8.22, 7.59, 10.28, 9.83, 9.83, 9.39, 9.39, 6.64, 6.32, 8.0, 7.6, 8.06, 8.67, 8.0, 8.0, 6.32, 7.59, 6.95, 9.83, 7.27, 7.59, 4.6, -0.0, -11.18, -10.73, -11.62, -12.96, -13.41, -15.2, 0.0, 0.0, 5.07, 12.19, 11.72, 12.96, 10.8, 6.93, 3.86, 0.0, 0.0, -2.43, -2.35, -4.52, -2.72, -6.2, -11.53, -11.16, -10.79, -10.79, -10.79, -10.79, -13.75, -13.75, -13.59, -13.64, -13.64, -13.64, -13.64, -13.64, -13.8, -13.39, -13.39, -13.39, -13.76, -13.39, -13.39, -13.39, -13.1, -12.73, -12.73, -12.37, -11.69, -11.69, -11.69, -11.69, -11.33, -10.99, -10.99, -10.99, -10.99, -10.58, -10.58, -10.63, -10.63, -10.12, -10.12, -10.12, -10.69, -10.12, -10.12, -10.12, -9.02, -7.69, -6.9, -4.81, -3.14, 0.0, 0.0, 0.0, 0.0, 11.18, 10.28, 9.83, 9.83, 9.39, 9.39, 6.01, 7.6, 7.2, 6.7, 7.6, 7.6, 8.0, 6.32, 4.71, 7.59, 6.95, 6.95, 4.2, 4.6, -0.0, -11.62, -9.75, -10.84, -12.27, -11.99, 0.0, -7.2, 0.0, 2.83, 11.8, 19.24, 17.68, 12.2, 8.51, 3.95, 0.0, 0.0, -2.65, -4.81, -5.15, -6.4, -10.41, -12.58, -12.58, -11.6, -11.2, -11.2, -11.2, -13.59, -13.59, -13.59, -13.25, -13.64, -13.25, -13.64, -13.42, -13.42, -13.39, -13.39, -13.39, -13.39, -13.39, -13.39, -12.73, -12.73, -12.73, -12.37, -12.37, -12.05, -11.69, -12.13, -12.13, -11.44, -11.44, -11.44, -11.44, -11.44, -11.44, -11.07, -11.07, -10.63, -10.12, -10.12, -10.69, -10.69, -10.69, -10.12, -10.12, -9.8, -8.59, -8.38, -7.78, -7.19, -5.6, 0.0, 0.0, 0.0, 0.0, 11.18, 10.73, 10.28, 9.83, 9.83, 6.32, 6.32, 7.6, 6.7, 6.7, 7.6, 6.79, 6.32, 6.64, 4.96, 7.27, 6.95, 6.32, -0.0, -0.0, -10.28, -10.41, -10.4, -11.87, 0.0, 13.86, 0.0, 0.0, 2.53, 11.17, 18.02, 18.51, 11.27, 8.18, 5.53, 2.38, 0.0, -4.79, -5.81, -6.6, -9.48, -11.45, -12.14, -12.14, -12.14, -11.71, -11.71, -11.71, -13.59, -13.59, -13.59, -13.59, -13.59, -13.25, -13.25, -13.42, -13.42, -13.42, -13.02, -13.02, -13.02, -13.02, -13.02, -12.73, -12.73, -12.37, -12.37, -12.37, -12.5, -12.13, -11.76, -11.76, -11.44, -11.44, -11.44, -11.44, -11.44, -11.44, -11.07, -11.07, -10.63, -10.63, -10.69, -10.69, -10.69, -10.69, -10.77, -10.43, -9.8, -9.48, -8.38, -7.78, -7.19, -5.6, -8.53, -12.07, 0.0, 0.0, 0.0, 0.0, 0.0, 0.0, 0.0, -0.0, 6.32, 6.01, 5.69, 6.7, 5.69, 6.01, 6.01, 6.32, 4.96, 6.95, 6.64, 6.64, -0.0, -4.4, -10.28, -11.18, -11.62, -8.85, 0.0, 13.41, 0.0, 0.0, 8.28, 12.92, 14.42, 13.34, 12.18, 11.05, 8.63, 2.5, -2.53, -4.95, -5.48, -9.17, -12.52, -12.52, -12.07, -12.07, -12.07, -12.07, -12.07, -12.07, -13.59, -13.59, -13.59, -13.19, -13.59, -13.25, -13.25, -13.03, -13.03, -13.42, -13.02, -13.02, -13.02, -13.02, -13.02, -12.79, -12.79, -12.79, -12.79, -12.79, -12.41, -12.13, -11.76, -11.76, -11.44, -11.44, -11.44, -11.44, -11.44, -11.44, -11.44, -11.07, -10.63, -11.17, -11.17, -11.17, -11.17, -11.29, -10.94, -10.43, -10.18, -9.48, -8.1, -9.17, -9.17, -8.85, -8.53, -12.07, -11.62, 0.0, -0.0, 0.0, 0.0, -0.0, -0.0, -0.0, -0.0, 4.0, 6.01, 6.7, 5.37, 5.69, 6.01, 5.36, 4.0, 4.6, 4.6, 4.4, -0.0, -0.0, -0.0, -9.6, -11.62, 0.0, 0.0, 0.0, 9.8, 10.12, 13.19, 12.52, 9.92, 9.98, 13.57, 14.93, 7.37, 0.0, -2.79, -4.81, -5.8, 0.0, -12.52, -12.07, -11.62, -11.18, -11.18, -10.73, -10.73, -10.73, -13.19, -13.19, -13.19, -13.19, -13.19, -13.19, -12.86, -13.03, -13.03, -13.03, -13.03, -12.65, -12.65, -12.65, -13.03, -12.79, -12.79, -12.79, -12.79, -12.41, -12.41, -11.76, -11.76, -11.76, -11.76, -11.44, -11.44, -11.44, -11.44, -11.44, -11.44, -11.42, -11.93, -11.52, -11.17, -11.17, -11.17, -11.35, -10.94, -10.73, -10.18, -9.96, -10.12, -9.17, -8.85, -8.85, -10.8, -12.07, -11.62, -8.22, -0.0, -0.0, -0.0, -0.0, -0.0, -0.0, -0.0, -0.0, 3.8, 4.46, 5.69, 4.56, 4.83, 3.8, 3.15, 2.17, 2.39, 3.11, 3.11, 3.11, 3.11, 3.25, -0.0, -0.0, 0.0, 0.0, 13.41, 13.41, 13.57, 10.43, 7.0, 9.92, 14.22, 13.89, 0.0, 0.0, -11.99, -9.75, -9.67, -5.6, -3.82, -11.03, -10.73, -10.73, -10.28, -6.95, -6.95, -6.95, -13.19, -13.19, -13.19, -13.19, -13.19, -13.19, -12.86, -12.65, -12.65, -13.03, -13.03, -12.65, -12.65, -12.65, -13.03, -13.16, -12.79, -12.79, -12.41, -12.41, -12.03, -11.76, -11.76, -11.76, -11.76, -11.44, -11.44, -11.44, -11.44, -11.44, -12.27, -11.93, -11.93, -11.52, -11.17, -11.17, -11.17, -11.35, -10.94, -10.73, -10.18, -9.96, -10.12, -10.01, -11.2, -11.87, -12.07, -12.07, -11.62, -8.22, -8.22, -7.9, -0.0, -0.0, -0.0, -0.0, -0.0, -0.0, 4.0, 4.71, 4.46, 4.56, 4.56, 3.6, 1.58, -0.0, -0.0, 3.25, 5.7, 4.6, 4.6, 6.95, 6.95, -0.0, -0.0, -0.0, -0.0, 9.17, 13.86, 10.43, 8.18, 8.18, 13.99, 0.0, -27.27, 19.67, -0.0, -10.73, -10.52, -9.58, -5.98, -8.22, -10.84, -10.73, -10.28, -6.95, -6.95, -6.95, -13.19, -12.79, -12.79, -12.79, -12.79, -12.79, -12.47, -12.65, -12.65, -12.65, -12.65, -12.65, -12.65, -13.42, -13.42, -12.79, -12.79, -12.41, -12.41, -12.03, -12.03, -11.76, -11.76, -11.76, -11.76, -11.76, -11.76, -11.76, -12.13, -12.27, -12.27, -12.27, -11.93, -11.93, -11.17, -11.17, -11.72, -11.35, -10.94, -10.73, -10.91, -9.96, -10.12, -10.73, -11.2, -11.71, -12.07, -12.07, -11.62, -10.4, -10.4, -8.22, -5.0, -0.0, -0.0, -0.0, -0.0, -0.0, 4.0, 2.83, 4.71, 4.83, 3.91, 2.82, 1.49, 1.4, -0.0, -0.0, -0.0, -0.0, 4.8, 7.59, 10.28, 8.8, -0.0, -0.0, -0.0, -0.0, -0.0, 0.0, 10.12, 10.12, -0.0, -0.0, 0.0, 21.9, 16.54, 0.0, -10.96, -10.75, -9.7, -8.73, -11.4, -11.18, -10.18, -6.95, -6.95, -6.95, -12.79, -12.79, -12.79, -12.79, -12.79, -12.79, -12.79, -12.27, -12.27, -12.65, -13.03, -13.03, -13.42, -13.03, -13.03, -12.79, -12.41, -12.41, -12.03, -12.03, -12.03, -11.76, -11.76, -11.76, -11.76, -11.76, -11.76, -12.13, -12.56, -12.27, -12.27, -12.27, -11.93, -11.93, -11.57, -12.07, -11.35, -11.35, -11.5, -11.16, -10.99, -11.26, -10.41, -10.73, -11.2, -11.71, -12.07, -12.07, -11.45, -11.03, -11.62, -10.4, -10.4, -0.0, -0.0, -0.0, -0.0, -0.0, -0.0, 2.83, 4.71, 3.6, 4.14, 2.82, 2.82, 1.25, -0.0, -0.0, -0.0, -0.0, -0.0, -0.0, 0.0, 10.28, 7.27, -0.0, -0.0, -0.0, -0.0, 0.0, 0.0, -0.0, 4.66, 12.19, 12.39, 23.25, 17.78, 14.75, 0.0, -11.45, -11.13, -12.14, -11.62, -10.4, -8.93, -5.7, -5.7, -5.7, -12.39, -12.39, -12.39, -12.39, -12.79, -12.79, -12.79, -12.27, -12.65, -13.03, -13.03, -13.03, -13.03, -13.03, -13.03, -12.41, -12.41, -12.41, -12.03, -12.03, -12.03, -12.42, -12.18, -12.18, -11.76, -12.13, -12.13, -12.13, -12.56, -12.56, -12.27, -12.27, -11.93, -11.57, -11.57, -12.07, -11.69, -11.35, -11.5, -11.16, -10.99, -11.26, -11.2, -10.73, -11.62, -11.71, -12.07, -12.07, -12.07, -12.07, -12.07, -12.07, -8.22, -0.0, -0.0, -0.0, -0.0, -0.0, -0.0, 2.83, 2.69, 3.6, 2.82, 2.4, 2.4, 2.4, 1.25, -0.0, -0.0, -0.0, -0.0, -4.6, -7.27, -0.0, -0.0, -0.0, -0.0, -0.0, -0.0, 0.0, -0.0, 3.36, 12.96, 23.59, 14.88, 19.59, 16.54, 13.15, 12.07, -11.03, -10.75, -11.02, -7.9, -6.2, -5.95, -5.7, -5.7, -5.7, -12.39, -12.39, -12.39, -12.39, -12.39, -12.79, -12.79, -12.65, -12.65, -12.65, -12.65, -13.03, -12.65, -12.65, -12.65, -12.41, -12.41, -12.41, -12.41, -12.42, -12.81, -12.81, -12.56, -12.56, -12.13, -12.13, -12.5, -12.5, -12.56, -12.56, -12.27, -12.27, -11.9, -11.57, -11.57, -11.69, -11.69, -11.35, -11.5, -11.16, -10.99, -11.26, -11.2, -11.2, -11.62, -11.84, -12.07, -12.07, -12.07, -12.07, -12.07, -12.07, -10.4, -7.9, -0.0, -0.0, -0.0, -0.0, -0.0, -0.0, 2.06, 1.95, 2.82, 2.4, 2.54, 2.54, 2.21, 1.14, -0.0, -0.0, -0.0, -3.39, -3.39, -4.6, -0.0, -0.0, -0.0, -8.22, -8.85, 0.0, 5.6, 2.63, 6.97, 24.14, 19.28, 14.54, 16.54, 11.84, 10.52, 0.0, -11.18, -10.4, -0.0, -3.53, -6.2, -4.4, -4.4, -4.4, -12.39, -12.39, -12.39, -12.39, -12.79, -12.79, -12.79, -12.62, -12.65, -12.65, -12.65, -12.65, -12.65, -12.65, -12.65, -12.41, -12.41, -12.41, -12.41, -12.81, -12.81, -12.81, -12.81, -12.94, -12.94, -12.94, -12.5, -12.56, -12.56, -12.56, -12.56, -11.9, -11.9, -11.9, -12.07, -11.69, -11.69, -11.77, -11.5, -11.33, -10.99, -11.26, -11.5, -11.87, -11.87, -11.84, -12.07, -12.07, -12.07, -12.07, -12.07, -12.07, -11.62, -11.18, -7.59, -0.0, -0.0, -0.0, -0.0, -0.0, -0.0, 1.95, 1.58, 1.32, 1.32, 2.21, 2.33, 1.05, -0.0, -0.0, -0.0, -2.6, -3.39, -0.0, -0.0, -0.0, -0.0, -7.9, -8.22, -0.0, 5.6, 2.02, 2.94, 14.86, 12.79, 7.77, 14.88, 14.3, 10.96, 9.3, -3.68, -0.0, -0.0, -0.0, -6.2, -5.7, -5.7, -5.7, -12.39, -12.39, -12.39, -12.39, -12.39, -12.39, -12.39, -12.62, -12.27, -12.27, -12.27, -12.27, -12.65, -12.65, -12.65, -12.41, -12.41, -12.79, -13.2, -13.2, -13.2, -13.2, -13.2, -12.94, -12.94, -12.94, -12.94, -12.56, -12.56, -12.56, -12.18, -11.9, -11.9, -11.9, -11.69, -11.69, -11.69, -11.77, -11.5, -11.33, -11.33, -11.6, -11.5, -11.87, -11.87, -12.35, -12.07, -12.07, -12.07, -12.07, -12.07, -11.62, -11.18, -11.18, -10.73, -0.0, -0.0, -0.0, -0.0, -0.0, -0.0, -0.0, -0.0, 1.58, 1.58, 1.4, 1.2, 1.05, -0.0, -0.0, -0.0, -0.0, -0.0, -0.0, -0.0, 4.4, -0.0, -0.0, -10.73, -11.62, 3.14, -0.0, -0.0, -0.0, 0.0, 0.0, 10.66, 16.48, 12.96, 10.0, -0.0, -6.45, -10.8, -11.62, -7.9, -6.2, -6.2, -6.2, -12.39, -12.39, -12.39, -12.39, -12.39, -12.39, -12.39, -12.23, -11.88, -12.27, -12.27, -12.65, -12.65, -12.65, -13.03, -13.03, -12.79, -13.2, -13.2, -13.2, -13.2, -13.2, -13.2, -13.2, -12.56, -12.94, -12.56, -12.56, -12.18, -12.18, -12.18, -12.18, -11.9, -11.53, -11.97, -11.69, -11.31, -11.77, -11.5, -11.6, -11.33, -11.6, -11.5, -12.04, -11.87, -12.35, -12.07, -12.07, -12.07, -12.07, -12.07, -11.62, -11.18, -11.18, -10.73, -7.27, -0.0, -0.0, -0.0, -0.0, -0.0, -0.0, -0.0, 2.06, 2.06, 2.06, 1.75, 1.47, -0.0, -0.0, -0.0, -2.49, -0.0, -0.0, -0.0, -0.0, -0.0, -0.0, -10.28, 0.0, -0.0, -0.0, -0.0, -0.0, 0.0, 0.0, 5.1, 12.96, 16.09, 13.44, 5.8, -7.19, -12.58, -12.96, -11.87, -10.41, -10.41, -10.41, -11.99, -11.99, -11.99, -12.39, -12.39, -12.39, -12.39, -12.39, -12.23, -12.27, -12.27, -12.65, -12.65, -13.03, -13.03, -13.03, -13.2, -13.2, -13.2, -13.2, -13.2, -12.81, -13.2, -13.2, -12.81, -12.81, -12.56, -12.18, -12.18, -12.18, -12.18, -12.18, -11.9, -11.53, -11.97, -11.58, -11.31, -11.77, -11.38, -11.12, -11.33, -11.85, -12.14, -12.04, -12.04, -12.39, -12.07, -12.07, -12.07, -12.07, -11.62, -11.18, -11.18, -10.73, -10.73, -9.2, -4.6, -0.0, -0.0, 2.17, -0.0, -0.0, -0.0, -0.0, 2.06, 4.71, 2.83, 2.17, -0.0, -0.0, -1.33, -2.71, -0.0, -0.0, -2.28, -2.28, -2.97, -0.0, -0.0, -11.62, 0.0, -0.0, -0.0, -3.24, -22.8, 0.0, 5.42, 13.91, 16.96, 16.54, 14.39, -6.6, -11.16, -12.72, -12.96, -12.96, -12.96, -12.96, -11.99, -11.99, -11.99, -11.99, -11.99, -12.39, -12.39, -12.39, -12.23, -12.27, -12.27, -12.65, -12.65, -13.03, -13.03, -13.03, -13.41, -13.2, -13.2, -13.2, -12.81, -12.81, -13.2, -13.2, -12.81, -12.81, -12.42, -12.42, -12.18, -12.18, -12.18, -12.18, -11.8, -11.53, -11.97, -11.58, -11.58, -11.38, -11.38, -11.12, -11.6, -11.85, -12.14, -12.14, -12.04, -12.04, -11.95, -12.07, -12.07, -12.07, -11.62, -11.18, -11.18, -10.73, -10.28, -9.2, -9.2, -0.0, -0.0, -0.0, 2.83, 2.06, -0.0, -0.0, -0.0, 2.69, 4.0, 4.0, -0.0, -0.0, -0.0, -0.0, -0.0, -0.0, -0.0, -0.0, -0.0, -0.0, -0.0, -0.0, -0.0, 4.1, -0.0, -3.07, -14.86, 0.0, 6.93, 14.54, 16.79, 18.78, 12.64, -0.0, -10.43, -12.3, -12.96, -12.58, -12.58, -12.58, -11.99, -11.99, -11.99, -11.99, -11.99, -11.99, -11.99, -12.39, -12.39, -12.27, -12.27, -12.65, -12.65, -12.65, -12.65, -13.02, -13.02, -13.02, -13.02, -12.81, -12.81, -12.81, -12.81, -12.81, -12.81, -12.42, -12.42, -12.42, -12.42, -12.18, -12.18, -11.8, -11.8, -11.53, -11.58, -11.58, -11.58, -11.38, -11.38, -11.12, -11.6, -11.85, -12.14, -11.72, -11.72, -12.04, -11.95, -12.07, -12.07, -11.62, -11.62, -11.18, -11.18, -10.73, -10.41, -9.75, -9.2, -6.95, -4.2, -0.0, -0.0, 2.69, 2.06, 1.4, -0.0, -0.0, -0.0, -0.0, -0.0, -0.0, -0.0, -0.0, -0.0, -0.0, -0.0, 1.93, -0.0, -0.0, -0.0, -0.0, -0.0, -0.0, -0.0, -2.89, -8.4, 0.0, 0.0, 9.4, 14.54, 0.0, 0.0, -0.0, -7.2, -12.79, -12.96, -10.79, -10.79, -10.79, -11.99, -11.99, -11.99, -11.99, -11.99, -11.99, -11.99, -12.39, -12.39, -12.27, -12.27, -12.65, -12.65, -12.65, -12.65, -13.02, -13.02, -13.02, -13.02, -12.81, -12.81, -12.81, -12.81, -12.81, -12.81, -12.42, -12.42, -12.42, -12.42, -12.18, -12.18, -11.8, -11.8, -11.53, -11.58, -11.58, -11.58, -11.38, -11.38, -11.12, -11.6, -11.85, -12.14, -11.72, -11.72, -12.04, -11.95, -12.07, -12.07, -11.62, -11.62, -11.18, -11.18, -10.73, -10.41, -9.75, -9.2, -6.95, -4.2, -0.0, -0.0, 2.69, 2.06, 1.4, -0.0, -0.0, -0.0, -0.0, -0.0, -0.0, -0.0, -0.0, -0.0, -0.0, -0.0, 1.93, -0.0, -0.0, -0.0, -0.0, -0.0, 0.0, -0.0, -6.4, -7.2, -20.12, 0.0, 0.0, 0.0, 0.0, 0.0, -13.59, -17.43, -15.65, -12.3, -9.17, -9.17, -9.17]}]